Time,TemperatureF,DewpointF,PressureIn,WindDirection,WindDirectionDegrees,WindSpeedMPH,WindSpeedGustMPH,Humidity,HourlyPrecipIn,Conditions,Clouds,dailyrainin,SoftwareType,DateUTC
2013-01-20 00:00:00,47.0,23.3,29.62,SW,221,7.0,7.0,39,0.00,,,0.02,Wunderground v.1.15,2013-01-20 05:00:00,
2013-01-20 00:01:00,47.0,23.3,29.62,South,178,7.0,11.0,39,0.00,,,0.02,Wunderground v.1.15,2013-01-20 05:01:00,
2013-01-20 00:02:00,47.0,23.3,29.62,WSW,243,7.0,13.0,39,0.00,,,0.02,Wunderground v.1.15,2013-01-20 05:02:00,
2013-01-20 00:05:00,47.0,23.9,29.62,West,273,7.0,13.0,40,0.00,,,0.02,Wunderground v.1.15,2013-01-20 05:05:00,
2013-01-20 00:07:00,47.0,23.9,29.61,West,267,7.0,13.0,40,0.00,,,0.02,Wunderground v.1.15,2013-01-20 05:07:00,
2013-01-20 00:08:00,47.0,23.9,29.62,West,262,7.0,13.0,40,0.00,,,0.02,Wunderground v.1.15,2013-01-20 05:08:00,
2013-01-20 00:10:00,46.9,23.8,29.62,SW,226,7.0,7.0,40,0.00,,,0.02,Wunderground v.1.15,2013-01-20 05:10:00,
2013-01-20 00:12:00,46.9,23.8,29.62,WSW,239,6.0,17.0,40,0.00,,,0.02,Wunderground v.1.15,2013-01-20 05:12:00,
2013-01-20 00:13:00,46.9,23.8,29.61,WSW,250,6.0,17.0,40,0.00,,,0.02,Wunderground v.1.15,2013-01-20 05:13:00,
2013-01-20 00:17:00,46.9,23.8,29.61,South,179,7.0,17.0,40,0.00,,,0.02,Wunderground v.1.15,2013-01-20 05:17:00,
2013-01-20 00:18:00,46.9,23.8,29.61,WNW,284,7.0,17.0,40,0.00,,,0.02,Wunderground v.1.15,2013-01-20 05:18:00,
2013-01-20 00:19:00,46.9,23.8,29.61,SSE,167,7.0,17.0,40,0.00,,,0.02,Wunderground v.1.15,2013-01-20 05:19:00,
2013-01-20 00:23:00,46.8,23.7,29.61,WSW,249,7.0,8.0,40,0.00,,,0.02,Wunderground v.1.15,2013-01-20 05:23:00,
2013-01-20 00:28:00,46.6,24.1,29.60,WSW,249,7.0,13.0,41,0.00,,,0.02,Wunderground v.1.15,2013-01-20 05:28:00,
2013-01-20 00:29:00,46.6,24.1,29.60,SW,225,7.0,13.0,41,0.00,,,0.02,Wunderground v.1.15,2013-01-20 05:29:00,
2013-01-20 00:30:00,46.6,24.1,29.60,West,281,7.0,7.0,41,0.00,,,0.02,Wunderground v.1.15,2013-01-20 05:30:00,
2013-01-20 00:31:00,46.5,24.0,29.60,South,188,7.0,7.0,41,0.00,,,0.02,Wunderground v.1.15,2013-01-20 05:31:00,
2013-01-20 00:35:00,46.4,23.9,29.60,SW,229,7.0,12.0,41,0.00,,,0.02,Wunderground v.1.15,2013-01-20 05:35:00,
2013-01-20 00:38:00,46.3,23.9,29.60,SE,142,6.0,12.0,41,0.00,,,0.02,Wunderground v.1.15,2013-01-20 05:38:00,
2013-01-20 00:40:00,46.3,23.9,29.60,West,276,7.0,13.0,41,0.00,,,0.02,Wunderground v.1.15,2013-01-20 05:40:00,
2013-01-20 00:41:00,46.4,23.9,29.61,South,182,7.0,13.0,41,0.00,,,0.02,Wunderground v.1.15,2013-01-20 05:41:00,
2013-01-20 00:44:00,46.4,23.9,29.60,SW,223,7.0,13.0,41,0.00,,,0.02,Wunderground v.1.15,2013-01-20 05:44:00,
2013-01-20 00:45:00,46.4,24.5,29.59,SW,236,7.0,13.0,42,0.00,,,0.02,Wunderground v.1.15,2013-01-20 05:45:00,
2013-01-20 00:49:00,46.4,24.5,29.59,SW,232,9.0,13.0,42,0.00,,,0.02,Wunderground v.1.15,2013-01-20 05:49:00,
2013-01-20 00:50:00,46.4,24.5,29.59,WSW,237,8.0,11.0,42,0.00,,,0.02,Wunderground v.1.15,2013-01-20 05:50:00,
2013-01-20 00:51:00,46.3,24.4,29.59,SW,234,7.0,11.0,42,0.00,,,0.02,Wunderground v.1.15,2013-01-20 05:51:00,
2013-01-20 00:52:00,46.3,24.4,29.59,SW,233,7.0,11.0,42,0.00,,,0.02,Wunderground v.1.15,2013-01-20 05:52:00,
2013-01-20 00:56:00,46.3,24.4,29.58,West,268,7.0,11.0,42,0.00,,,0.02,Wunderground v.1.15,2013-01-20 05:56:00,
2013-01-20 00:57:00,46.3,24.4,29.58,West,273,7.0,11.0,42,0.00,,,0.02,Wunderground v.1.15,2013-01-20 05:57:00,
2013-01-20 01:00:00,46.3,24.4,29.58,South,186,7.0,7.0,42,0.00,,,0.00,Wunderground v.1.15,2013-01-20 06:00:00,
2013-01-20 01:01:00,46.3,24.4,29.58,WSW,250,7.0,12.0,42,0.00,,,0.00,Wunderground v.1.15,2013-01-20 06:01:00,
2013-01-20 01:02:00,46.3,24.4,29.58,SW,226,7.0,12.0,42,0.00,,,0.00,Wunderground v.1.15,2013-01-20 06:02:00,
2013-01-20 01:05:00,46.2,24.3,29.58,SW,228,7.0,12.0,42,0.00,,,0.00,Wunderground v.1.15,2013-01-20 06:05:00,
2013-01-20 01:06:00,46.3,24.4,29.58,West,265,6.0,12.0,42,0.00,,,0.00,Wunderground v.1.15,2013-01-20 06:06:00,
2013-01-20 01:07:00,46.2,24.3,29.58,SW,221,6.0,12.0,42,0.00,,,0.00,Wunderground v.1.15,2013-01-20 06:07:00,
2013-01-20 01:10:00,46.1,24.8,29.58,West,264,6.0,13.0,43,0.00,,,0.00,Wunderground v.1.15,2013-01-20 06:10:00,
2013-01-20 01:11:00,46.2,24.9,29.58,SW,217,6.0,13.0,43,0.00,,,0.00,Wunderground v.1.15,2013-01-20 06:11:00,
2013-01-20 01:15:00,46.1,24.8,29.57,WSW,254,6.0,13.0,43,0.00,,,0.00,Wunderground v.1.15,2013-01-20 06:15:00,
2013-01-20 01:16:00,46.2,24.9,29.57,SW,221,6.0,13.0,43,0.00,,,0.00,Wunderground v.1.15,2013-01-20 06:16:00,
2013-01-20 01:21:00,46.1,24.8,29.57,SW,234,6.0,22.0,43,0.00,,,0.00,Wunderground v.1.15,2013-01-20 06:21:00,
2013-01-20 01:22:00,46.1,24.8,29.57,SW,229,6.0,22.0,43,0.00,,,0.00,Wunderground v.1.15,2013-01-20 06:22:00,
2013-01-20 01:27:00,45.9,25.2,29.57,SW,217,6.0,22.0,44,0.00,,,0.00,Wunderground v.1.15,2013-01-20 06:27:00,
2013-01-20 01:29:00,45.9,25.2,29.57,WSW,258,6.0,22.0,44,0.00,,,0.00,Wunderground v.1.15,2013-01-20 06:29:00,
2013-01-20 01:33:00,45.8,25.1,29.57,SW,225,5.0,11.0,44,0.00,,,0.00,Wunderground v.1.15,2013-01-20 06:33:00,
2013-01-20 01:35:00,45.9,25.2,29.56,West,272,6.0,11.0,44,0.00,,,0.00,Wunderground v.1.15,2013-01-20 06:35:00,
2013-01-20 01:37:00,45.9,25.2,29.56,West,265,7.0,11.0,44,0.00,,,0.00,Wunderground v.1.15,2013-01-20 06:37:00,
2013-01-20 01:38:00,45.8,25.1,29.56,SW,215,6.0,11.0,44,0.00,,,0.00,Wunderground v.1.15,2013-01-20 06:38:00,
2013-01-20 01:42:00,45.6,25.5,29.56,SSW,198,6.0,8.0,45,0.00,,,0.00,Wunderground v.1.15,2013-01-20 06:42:00,
2013-01-20 01:43:00,45.6,25.5,29.55,SW,236,6.0,8.0,45,0.00,,,0.00,Wunderground v.1.15,2013-01-20 06:43:00,
2013-01-20 01:47:00,45.6,25.5,29.55,South,187,6.0,8.0,45,0.00,,,0.00,Wunderground v.1.15,2013-01-20 06:47:00,
2013-01-20 01:48:00,45.6,25.5,29.56,WSW,241,5.0,8.0,45,0.00,,,0.00,Wunderground v.1.15,2013-01-20 06:48:00,
2013-01-20 01:49:00,45.6,25.5,29.55,SW,226,6.0,8.0,45,0.00,,,0.00,Wunderground v.1.15,2013-01-20 06:49:00,
2013-01-20 01:54:00,45.6,25.5,29.55,WSW,247,6.0,12.0,45,0.00,,,0.00,Wunderground v.1.15,2013-01-20 06:54:00,
2013-01-20 01:55:00,45.6,25.5,29.55,South,173,6.0,12.0,45,0.00,,,0.00,Wunderground v.1.15,2013-01-20 06:55:00,
2013-01-20 01:57:00,45.6,25.5,29.55,WSW,238,6.0,13.0,45,0.00,,,0.00,Wunderground v.1.15,2013-01-20 06:57:00,
2013-01-20 01:58:00,45.5,25.4,29.55,WSW,241,6.0,13.0,45,0.00,,,0.00,Wunderground v.1.15,2013-01-20 06:58:00,
2013-01-20 02:00:00,45.5,25.4,29.55,SSW,195,6.0,6.0,45,0.00,,,0.00,Wunderground v.1.15,2013-01-20 07:00:00,
2013-01-20 02:03:00,45.4,25.3,29.55,South,191,6.0,7.0,45,0.00,,,0.00,Wunderground v.1.15,2013-01-20 07:03:00,
2013-01-20 02:05:00,45.5,25.4,29.55,SW,224,6.0,14.0,45,0.00,,,0.00,Wunderground v.1.15,2013-01-20 07:05:00,
2013-01-20 02:06:00,45.4,25.8,29.55,WSW,250,6.0,14.0,46,0.00,,,0.00,Wunderground v.1.15,2013-01-20 07:06:00,
2013-01-20 02:08:00,45.4,25.8,29.55,SW,215,6.0,14.0,46,0.00,,,0.00,Wunderground v.1.15,2013-01-20 07:08:00,
2013-01-20 02:10:00,45.3,25.7,29.55,SW,227,6.0,6.0,46,0.00,,,0.00,Wunderground v.1.15,2013-01-20 07:10:00,
2013-01-20 02:11:00,45.3,25.7,29.54,SW,221,6.0,6.0,46,0.00,,,0.00,Wunderground v.1.15,2013-01-20 07:11:00,
2013-01-20 02:12:00,45.3,25.7,29.55,SSW,207,6.0,6.0,46,0.00,,,0.00,Wunderground v.1.15,2013-01-20 07:12:00,
2013-01-20 02:13:00,45.3,25.7,29.54,WSW,240,5.0,6.0,46,0.00,,,0.00,Wunderground v.1.15,2013-01-20 07:13:00,
2013-01-20 02:16:00,45.2,25.6,29.54,SSW,209,5.0,6.0,46,0.00,,,0.00,Wunderground v.1.15,2013-01-20 07:16:00,
2013-01-20 02:20:00,45.2,26.1,29.54,SW,223,5.0,5.0,47,0.00,,,0.00,Wunderground v.1.15,2013-01-20 07:20:00,
2013-01-20 02:22:00,45.2,25.6,29.53,West,269,6.0,8.0,46,0.00,,,0.00,Wunderground v.1.15,2013-01-20 07:22:00,
2013-01-20 02:23:00,45.2,26.1,29.53,West,265,6.0,15.0,47,0.00,,,0.00,Wunderground v.1.15,2013-01-20 07:23:00,
2013-01-20 02:27:00,45.2,26.1,29.53,SSW,196,7.0,15.0,47,0.00,,,0.00,Wunderground v.1.15,2013-01-20 07:27:00,
2013-01-20 02:28:00,45.2,26.1,29.53,South,179,7.0,15.0,47,0.00,,,0.00,Wunderground v.1.15,2013-01-20 07:28:00,
2013-01-20 02:29:00,45.2,26.1,29.53,SW,216,7.0,15.0,47,0.00,,,0.00,Wunderground v.1.15,2013-01-20 07:29:00,
2013-01-20 02:30:00,45.2,26.1,29.53,West,268,7.0,9.0,47,0.00,,,0.00,Wunderground v.1.15,2013-01-20 07:30:00,
2013-01-20 02:32:00,45.2,26.1,29.52,SSW,209,6.0,9.0,47,0.00,,,0.00,Wunderground v.1.15,2013-01-20 07:32:00,
2013-01-20 02:34:00,45.2,26.1,29.52,West,271,6.0,10.0,47,0.00,,,0.00,Wunderground v.1.15,2013-01-20 07:34:00,
2013-01-20 02:35:00,45.1,26.6,29.53,SW,227,6.0,10.0,48,0.00,,,0.00,Wunderground v.1.15,2013-01-20 07:35:00,
2013-01-20 02:37:00,45.1,26.6,29.52,South,183,6.0,13.0,48,0.00,,,0.00,Wunderground v.1.15,2013-01-20 07:37:00,
2013-01-20 02:39:00,45.1,26.6,29.52,West,280,6.0,13.0,48,0.00,,,0.00,Wunderground v.1.15,2013-01-20 07:39:00,
2013-01-20 02:40:00,45.2,26.7,29.53,WSW,238,6.0,6.0,48,0.00,,,0.00,Wunderground v.1.15,2013-01-20 07:40:00,
2013-01-20 02:41:00,45.2,26.7,29.52,SW,219,6.0,6.0,48,0.00,,,0.00,Wunderground v.1.15,2013-01-20 07:41:00,
2013-01-20 02:45:00,45.3,26.7,29.52,WSW,252,7.0,13.0,48,0.00,,,0.00,Wunderground v.1.15,2013-01-20 07:45:00,
2013-01-20 02:46:00,45.3,26.7,29.52,SSE,156,7.0,13.0,48,0.00,,,0.00,Wunderground v.1.15,2013-01-20 07:46:00,
2013-01-20 02:47:00,45.3,26.7,29.52,SW,217,7.0,13.0,48,0.00,,,0.00,Wunderground v.1.15,2013-01-20 07:47:00,
2013-01-20 02:52:00,45.4,26.8,29.52,SW,224,8.0,9.0,48,0.00,,,0.00,Wunderground v.1.15,2013-01-20 07:52:00,
2013-01-20 02:53:00,45.4,26.8,29.52,WNW,290,7.0,9.0,48,0.00,,,0.00,Wunderground v.1.15,2013-01-20 07:53:00,
2013-01-20 02:54:00,45.5,26.9,29.51,West,269,7.0,9.0,48,0.00,,,0.00,Wunderground v.1.15,2013-01-20 07:54:00,
2013-01-20 02:56:00,45.4,26.8,29.52,SW,217,7.0,11.0,48,0.00,,,0.00,Wunderground v.1.15,2013-01-20 07:56:00,
2013-01-20 02:59:00,45.4,26.8,29.51,SSW,205,7.0,12.0,48,0.00,,,0.00,Wunderground v.1.15,2013-01-20 07:59:00,
2013-01-20 03:01:00,45.4,26.8,29.51,WSW,248,7.0,14.0,48,0.00,,,0.00,Wunderground v.1.15,2013-01-20 08:01:00,
2013-01-20 03:06:00,45.4,26.8,29.51,WSW,255,7.0,14.0,48,0.00,,,0.00,Wunderground v.1.15,2013-01-20 08:06:00,
2013-01-20 03:07:00,45.4,26.8,29.51,SW,229,7.0,14.0,48,0.00,,,0.00,Wunderground v.1.15,2013-01-20 08:07:00,
2013-01-20 03:10:00,45.4,27.3,29.51,SW,235,7.0,7.0,49,0.00,,,0.00,Wunderground v.1.15,2013-01-20 08:10:00,
2013-01-20 03:12:00,45.3,27.2,29.50,SSW,203,7.0,13.0,49,0.00,,,0.00,Wunderground v.1.15,2013-01-20 08:12:00,
2013-01-20 03:13:00,45.3,27.2,29.50,WSW,240,7.0,13.0,49,0.00,,,0.00,Wunderground v.1.15,2013-01-20 08:13:00,
2013-01-20 03:15:00,45.3,27.2,29.50,WSW,250,7.0,13.0,49,0.00,,,0.00,Wunderground v.1.15,2013-01-20 08:15:00,
2013-01-20 03:20:00,45.2,27.2,29.50,West,260,7.0,7.0,49,0.00,,,0.00,Wunderground v.1.15,2013-01-20 08:20:00,
2013-01-20 03:22:00,45.1,27.1,29.50,WSW,249,6.0,12.0,49,0.00,,,0.00,Wunderground v.1.15,2013-01-20 08:22:00,
2013-01-20 03:25:00,45.1,27.1,29.50,SW,223,6.0,12.0,49,0.00,,,0.00,Wunderground v.1.15,2013-01-20 08:25:00,
2013-01-20 03:27:00,45.1,27.6,29.50,SSW,192,6.0,12.0,50,0.00,,,0.00,Wunderground v.1.15,2013-01-20 08:27:00,
2013-01-20 03:28:00,45.1,27.6,29.50,WSW,242,6.0,12.0,50,0.00,,,0.00,Wunderground v.1.15,2013-01-20 08:28:00,
2013-01-20 03:29:00,45.0,27.5,29.50,WSW,244,6.0,12.0,50,0.00,,,0.00,Wunderground v.1.15,2013-01-20 08:29:00,
2013-01-20 03:30:00,45.1,27.6,29.50,WSW,238,6.0,7.0,50,0.00,,,0.00,Wunderground v.1.15,2013-01-20 08:30:00,
2013-01-20 03:33:00,45.1,27.6,29.49,WSW,248,6.0,7.0,50,0.00,,,0.00,Wunderground v.1.15,2013-01-20 08:33:00,
2013-01-20 03:34:00,45.0,27.5,29.49,SW,226,7.0,7.0,50,0.00,,,0.00,Wunderground v.1.15,2013-01-20 08:34:00,
2013-01-20 03:35:00,45.0,27.5,29.49,SW,214,7.0,14.0,50,0.00,,,0.00,Wunderground v.1.15,2013-01-20 08:35:00,
2013-01-20 03:36:00,45.0,27.5,29.49,SW,233,7.0,14.0,50,0.00,,,0.00,Wunderground v.1.15,2013-01-20 08:36:00,
2013-01-20 03:42:00,45.1,27.6,29.49,South,188,7.0,7.0,50,0.00,,,0.00,Wunderground v.1.15,2013-01-20 08:42:00,
2013-01-20 03:44:00,45.0,27.5,29.49,West,263,6.0,7.0,50,0.00,,,0.00,Wunderground v.1.15,2013-01-20 08:44:00,
2013-01-20 03:46:00,45.0,27.5,29.49,WSW,246,6.0,7.0,50,0.00,,,0.00,Wunderground v.1.15,2013-01-20 08:46:00,
2013-01-20 03:47:00,45.0,27.5,29.49,WSW,249,6.0,20.0,50,0.00,,,0.00,Wunderground v.1.15,2013-01-20 08:47:00,
2013-01-20 03:48:00,45.0,27.5,29.49,SW,219,6.0,20.0,50,0.00,,,0.00,Wunderground v.1.15,2013-01-20 08:48:00,
2013-01-20 03:53:00,44.8,27.3,29.48,SW,229,5.0,8.0,50,0.00,,,0.00,Wunderground v.1.15,2013-01-20 08:53:00,
2013-01-20 03:54:00,44.8,27.8,29.48,SSW,201,6.0,8.0,51,0.00,,,0.00,Wunderground v.1.15,2013-01-20 08:54:00,
2013-01-20 03:57:00,44.9,27.8,29.49,SW,217,7.0,14.0,51,0.00,,,0.00,Wunderground v.1.15,2013-01-20 08:57:00,
2013-01-20 03:58:00,44.9,27.8,29.48,WSW,256,6.0,14.0,51,0.00,,,0.00,Wunderground v.1.15,2013-01-20 08:58:00,
2013-01-20 03:59:00,44.9,27.8,29.49,South,186,7.0,14.0,51,0.00,,,0.00,Wunderground v.1.15,2013-01-20 08:59:00,
2013-01-20 04:03:00,44.9,27.8,29.48,WSW,250,8.0,10.0,51,0.00,,,0.00,Wunderground v.1.15,2013-01-20 09:03:00,
2013-01-20 04:04:00,45.0,27.9,29.48,SSW,198,8.0,10.0,51,0.00,,,0.00,Wunderground v.1.15,2013-01-20 09:04:00,
2013-01-20 04:06:00,45.0,27.9,29.48,West,272,9.0,10.0,51,0.00,,,0.00,Wunderground v.1.15,2013-01-20 09:06:00,
2013-01-20 04:07:00,45.0,27.9,29.48,WSW,240,9.0,10.0,51,0.00,,,0.00,Wunderground v.1.15,2013-01-20 09:07:00,
2013-01-20 04:09:00,45.0,27.9,29.48,West,273,9.0,13.0,51,0.00,,,0.00,Wunderground v.1.15,2013-01-20 09:09:00,
2013-01-20 04:11:00,45.0,27.9,29.48,West,268,8.0,9.0,51,0.00,,,0.00,Wunderground v.1.15,2013-01-20 09:11:00,
2013-01-20 04:13:00,45.0,27.9,29.48,WSW,257,8.0,10.0,51,0.00,,,0.00,Wunderground v.1.15,2013-01-20 09:13:00,
2013-01-20 04:16:00,44.9,27.8,29.48,SSW,198,8.0,14.0,51,0.00,,,0.00,Wunderground v.1.15,2013-01-20 09:16:00,
2013-01-20 04:17:00,44.9,27.8,29.48,West,264,8.0,14.0,51,0.00,,,0.00,Wunderground v.1.15,2013-01-20 09:17:00,
2013-01-20 04:19:00,44.9,27.8,29.47,WSW,239,8.0,14.0,51,0.00,,,0.00,Wunderground v.1.15,2013-01-20 09:19:00,
2013-01-20 04:22:00,45.0,27.9,29.47,WSW,241,9.0,13.0,51,0.00,,,0.00,Wunderground v.1.15,2013-01-20 09:22:00,
2013-01-20 04:23:00,45.0,27.9,29.48,West,280,10.0,14.0,51,0.00,,,0.00,Wunderground v.1.15,2013-01-20 09:23:00,
2013-01-20 04:24:00,45.0,27.9,29.47,WSW,249,10.0,14.0,51,0.00,,,0.00,Wunderground v.1.15,2013-01-20 09:24:00,
2013-01-20 04:25:00,45.0,27.9,29.47,WSW,248,10.0,14.0,51,0.00,,,0.00,Wunderground v.1.15,2013-01-20 09:25:00,
2013-01-20 04:28:00,45.0,27.9,29.46,SSW,196,9.0,18.0,51,0.00,,,0.00,Wunderground v.1.15,2013-01-20 09:28:00,
2013-01-20 04:30:00,45.1,28.0,29.47,SW,214,9.0,9.0,51,0.00,,,0.00,Wunderground v.1.15,2013-01-20 09:30:00,
2013-01-20 04:31:00,45.0,28.4,29.47,West,272,9.0,11.0,52,0.00,,,0.00,Wunderground v.1.15,2013-01-20 09:31:00,
2013-01-20 04:35:00,45.0,28.4,29.46,WSW,252,8.0,12.0,52,0.00,,,0.00,Wunderground v.1.15,2013-01-20 09:35:00,
2013-01-20 04:36:00,45.0,28.4,29.46,West,274,8.0,12.0,52,0.00,,,0.00,Wunderground v.1.15,2013-01-20 09:36:00,
2013-01-20 04:38:00,45.0,28.4,29.46,WSW,237,9.0,16.0,52,0.00,,,0.00,Wunderground v.1.15,2013-01-20 09:38:00,
2013-01-20 04:41:00,45.1,28.5,29.46,West,278,9.0,9.0,52,0.00,,,0.00,Wunderground v.1.15,2013-01-20 09:41:00,
2013-01-20 04:42:00,45.0,28.4,29.46,SE,144,9.0,9.0,52,0.00,,,0.00,Wunderground v.1.15,2013-01-20 09:42:00,
2013-01-20 04:43:00,45.1,28.5,29.46,WSW,244,9.0,12.0,52,0.00,,,0.00,Wunderground v.1.15,2013-01-20 09:43:00,
2013-01-20 04:44:00,45.1,28.5,29.46,South,178,8.0,12.0,52,0.00,,,0.00,Wunderground v.1.15,2013-01-20 09:44:00,
2013-01-20 04:47:00,45.1,28.5,29.46,South,175,9.0,12.0,52,0.00,,,0.00,Wunderground v.1.15,2013-01-20 09:47:00,
2013-01-20 04:50:00,45.2,28.6,29.46,SW,230,9.0,9.0,52,0.00,,,0.00,Wunderground v.1.15,2013-01-20 09:50:00,
2013-01-20 04:53:00,45.3,28.7,29.45,WSW,254,9.0,14.0,52,0.00,,,0.00,Wunderground v.1.15,2013-01-20 09:53:00,
2013-01-20 04:55:00,45.4,28.8,29.45,SW,221,9.0,14.0,52,0.00,,,0.00,Wunderground v.1.15,2013-01-20 09:55:00,
2013-01-20 04:56:00,45.4,28.8,29.45,West,272,9.0,14.0,52,0.00,,,0.00,Wunderground v.1.15,2013-01-20 09:56:00,
2013-01-20 04:58:00,45.4,28.8,29.45,SW,222,7.0,14.0,52,0.00,,,0.00,Wunderground v.1.15,2013-01-20 09:58:00,
2013-01-20 05:01:00,45.4,28.8,29.45,SW,236,7.0,8.0,52,0.00,,,0.00,Wunderground v.1.15,2013-01-20 10:01:00,
2013-01-20 05:02:00,45.5,28.9,29.45,WSW,253,7.0,16.0,52,0.00,,,0.00,Wunderground v.1.15,2013-01-20 10:02:00,
2013-01-20 05:05:00,45.5,28.9,29.45,West,259,8.0,16.0,52,0.00,,,0.00,Wunderground v.1.15,2013-01-20 10:05:00,
2013-01-20 05:07:00,45.6,29.0,29.45,West,267,9.0,16.0,52,0.00,,,0.00,Wunderground v.1.15,2013-01-20 10:07:00,
2013-01-20 05:08:00,45.6,29.0,29.45,SW,231,9.0,16.0,52,0.00,,,0.00,Wunderground v.1.15,2013-01-20 10:08:00,
2013-01-20 05:09:00,45.6,29.0,29.45,SSW,205,9.0,16.0,52,0.00,,,0.00,Wunderground v.1.15,2013-01-20 10:09:00,
2013-01-20 05:12:00,45.6,29.0,29.45,WSW,244,9.0,10.0,52,0.00,,,0.00,Wunderground v.1.15,2013-01-20 10:12:00,
2013-01-20 05:14:00,45.6,29.0,29.44,WSW,250,10.0,22.0,52,0.00,,,0.00,Wunderground v.1.15,2013-01-20 10:14:00,
2013-01-20 05:16:00,45.7,29.1,29.45,WSW,246,11.0,22.0,52,0.00,,,0.00,Wunderground v.1.15,2013-01-20 10:16:00,
2013-01-20 05:19:00,45.8,29.2,29.45,WSW,246,11.0,22.0,52,0.00,,,0.00,Wunderground v.1.15,2013-01-20 10:19:00,
2013-01-20 05:20:00,45.7,29.1,29.45,SSW,198,11.0,11.0,52,0.00,,,0.00,Wunderground v.1.15,2013-01-20 10:20:00,
2013-01-20 05:22:00,45.7,29.1,29.45,West,261,11.0,13.0,52,0.00,,,0.00,Wunderground v.1.15,2013-01-20 10:22:00,
2013-01-20 05:24:00,45.7,29.5,29.45,WSW,255,10.0,29.0,53,0.00,,,0.00,Wunderground v.1.15,2013-01-20 10:24:00,
2013-01-20 05:26:00,45.7,29.5,29.45,WSW,248,10.0,29.0,53,0.00,,,0.00,Wunderground v.1.15,2013-01-20 10:26:00,
2013-01-20 05:29:00,45.7,29.5,29.45,WSW,258,10.0,29.0,53,0.00,,,0.00,Wunderground v.1.15,2013-01-20 10:29:00,
2013-01-20 05:34:00,45.9,29.7,29.45,SW,222,10.0,15.0,53,0.00,,,0.00,Wunderground v.1.15,2013-01-20 10:34:00,
2013-01-20 05:35:00,45.9,29.7,29.45,West,264,10.0,15.0,53,0.00,,,0.00,Wunderground v.1.15,2013-01-20 10:35:00,
2013-01-20 05:36:00,45.9,29.7,29.45,WSW,241,9.0,15.0,53,0.00,,,0.00,Wunderground v.1.15,2013-01-20 10:36:00,
2013-01-20 05:38:00,45.9,29.7,29.45,West,259,10.0,15.0,53,0.00,,,0.00,Wunderground v.1.15,2013-01-20 10:38:00,
2013-01-20 05:42:00,46.0,29.8,29.45,WSW,250,10.0,13.0,53,0.00,,,0.00,Wunderground v.1.15,2013-01-20 10:42:00,
2013-01-20 05:43:00,46.0,29.8,29.45,SW,234,10.0,13.0,53,0.00,,,0.00,Wunderground v.1.15,2013-01-20 10:43:00,
2013-01-20 05:45:00,46.0,29.8,29.45,West,272,10.0,13.0,53,0.00,,,0.00,Wunderground v.1.15,2013-01-20 10:45:00,
2013-01-20 05:49:00,46.1,29.4,29.45,West,267,10.0,18.0,52,0.00,,,0.00,Wunderground v.1.15,2013-01-20 10:49:00,
2013-01-20 05:50:00,46.1,29.9,29.45,NW,309,10.0,10.0,53,0.00,,,0.00,Wunderground v.1.15,2013-01-20 10:50:00,
2013-01-20 05:55:00,45.7,33.0,29.46,NW,317,10.0,23.0,61,0.00,,,0.00,Wunderground v.1.15,2013-01-20 10:55:00,
2013-01-20 05:56:00,45.2,33.3,29.46,NW,313,11.0,23.0,63,0.00,,,0.00,Wunderground v.1.15,2013-01-20 10:56:00,
2013-01-20 05:58:00,44.1,33.5,29.47,West,269,11.0,23.0,66,0.00,,,0.00,Wunderground v.1.15,2013-01-20 10:58:00,
2013-01-20 06:01:00,42.6,33.9,29.47,West,275,12.0,16.0,71,0.00,,,0.00,Wunderground v.1.15,2013-01-20 11:01:00,
2013-01-20 06:02:00,42.0,34.0,29.47,WNW,296,13.0,16.0,73,0.00,,,0.00,Wunderground v.1.15,2013-01-20 11:02:00,
2013-01-20 06:03:00,41.5,34.2,29.48,WNW,302,13.0,16.0,75,0.00,,,0.00,Wunderground v.1.15,2013-01-20 11:03:00,
2013-01-20 06:06:00,40.3,34.3,29.49,WNW,295,14.0,18.0,79,0.00,,,0.00,Wunderground v.1.15,2013-01-20 11:06:00,
2013-01-20 06:07:00,39.9,33.9,29.49,West,267,15.0,18.0,79,0.00,,,0.01,Wunderground v.1.15,2013-01-20 11:07:00,
2013-01-20 06:09:00,39.4,34.4,29.49,WNW,294,14.0,18.0,82,0.00,,,0.01,Wunderground v.1.15,2013-01-20 11:09:00,
2013-01-20 06:13:00,38.3,33.6,29.49,West,281,15.0,18.0,83,0.00,,,0.01,Wunderground v.1.15,2013-01-20 11:13:00,
2013-01-20 06:15:00,37.7,33.3,29.50,WSW,255,16.0,18.0,84,0.00,,,0.01,Wunderground v.1.15,2013-01-20 11:15:00,
2013-01-20 06:20:00,36.9,33.4,29.51,WNW,293,15.0,15.0,87,0.17,,,0.03,Wunderground v.1.15,2013-01-20 11:20:00,
2013-01-20 06:21:00,36.8,33.3,29.51,SW,222,14.0,15.0,87,0.17,,,0.03,Wunderground v.1.15,2013-01-20 11:21:00,
2013-01-20 06:22:00,36.7,33.2,29.51,West,280,14.0,15.0,87,0.17,,,0.03,Wunderground v.1.15,2013-01-20 11:22:00,
2013-01-20 06:23:00,36.5,33.0,29.51,West,265,14.0,16.0,87,0.14,,,0.03,Wunderground v.1.15,2013-01-20 11:23:00,
2013-01-20 06:27:00,36.3,33.1,29.51,West,271,14.0,28.0,88,0.08,,,0.04,Wunderground v.1.15,2013-01-20 11:27:00,
2013-01-20 06:28:00,36.3,33.1,29.50,West,277,15.0,28.0,88,0.08,,,0.04,Wunderground v.1.15,2013-01-20 11:28:00,
2013-01-20 06:31:00,36.2,33.0,29.50,South,180,16.0,16.0,88,0.08,,,0.04,Wunderground v.1.15,2013-01-20 11:31:00,
2013-01-20 06:34:00,36.2,33.0,29.51,WSW,257,14.0,19.0,88,0.08,,,0.04,Wunderground v.1.15,2013-01-20 11:34:00,
2013-01-20 06:36:00,36.3,33.1,29.51,NW,311,13.0,19.0,88,0.06,,,0.04,Wunderground v.1.15,2013-01-20 11:36:00,
2013-01-20 06:37:00,36.3,33.1,29.51,West,276,13.0,19.0,88,0.06,,,0.04,Wunderground v.1.15,2013-01-20 11:37:00,
2013-01-20 06:39:00,36.4,32.9,29.51,WSW,256,14.0,19.0,87,0.05,,,0.04,Wunderground v.1.15,2013-01-20 11:39:00,
2013-01-20 06:41:00,36.5,33.0,29.51,WNW,288,14.0,14.0,87,0.04,,,0.04,Wunderground v.1.15,2013-01-20 11:41:00,
2013-01-20 06:42:00,36.5,33.3,29.51,West,273,13.0,14.0,88,0.04,,,0.04,Wunderground v.1.15,2013-01-20 11:42:00,
2013-01-20 06:47:00,36.6,33.1,29.51,WSW,237,12.0,16.0,87,0.00,,,0.04,Wunderground v.1.15,2013-01-20 11:47:00,
2013-01-20 06:49:00,36.6,33.1,29.50,West,265,11.0,16.0,87,0.00,,,0.04,Wunderground v.1.15,2013-01-20 11:49:00,
2013-01-20 06:50:00,36.7,32.6,29.51,West,268,11.0,11.0,85,0.00,,,0.04,Wunderground v.1.15,2013-01-20 11:50:00,
2013-01-20 06:52:00,36.8,32.7,29.51,WNW,284,11.0,11.0,85,0.00,,,0.04,Wunderground v.1.15,2013-01-20 11:52:00,
2013-01-20 06:53:00,36.9,32.5,29.51,WNW,287,11.0,11.0,84,0.00,,,0.04,Wunderground v.1.15,2013-01-20 11:53:00,
2013-01-20 06:54:00,36.9,32.5,29.51,WSW,252,11.0,18.0,84,0.00,,,0.04,Wunderground v.1.15,2013-01-20 11:54:00,
2013-01-20 06:55:00,37.0,32.0,29.51,West,272,12.0,18.0,82,0.00,,,0.04,Wunderground v.1.15,2013-01-20 11:55:00,
2013-01-20 06:58:00,37.3,31.7,29.51,South,184,14.0,19.0,80,0.00,,,0.04,Wunderground v.1.15,2013-01-20 11:58:00,
2013-01-20 07:00:00,37.4,31.8,29.51,WSW,240,13.0,13.0,80,0.00,,,0.04,Wunderground v.1.15,2013-01-20 12:00:00,
2013-01-20 07:03:00,37.5,30.9,29.51,WSW,244,13.0,23.0,77,0.00,,,0.04,Wunderground v.1.15,2013-01-20 12:03:00,
2013-01-20 07:04:00,37.6,31.0,29.49,West,261,14.0,23.0,77,0.00,,,0.05,Wunderground v.1.15,2013-01-20 12:04:00,
2013-01-20 07:10:00,38.2,29.6,29.51,West,277,15.0,15.0,71,0.00,,,0.05,Wunderground v.1.15,2013-01-20 12:10:00,
2013-01-20 07:11:00,38.2,29.6,29.51,WSW,250,16.0,16.0,71,0.00,,,0.05,Wunderground v.1.15,2013-01-20 12:11:00,
2013-01-20 07:12:00,38.2,29.6,29.51,West,280,16.0,16.0,71,0.00,,,0.05,Wunderground v.1.15,2013-01-20 12:12:00,
2013-01-20 07:15:00,38.1,29.2,29.52,WNW,283,14.0,19.0,70,0.00,,,0.05,Wunderground v.1.15,2013-01-20 12:15:00,
2013-01-20 07:16:00,38.1,29.2,29.52,WNW,298,13.0,19.0,70,0.00,,,0.05,Wunderground v.1.15,2013-01-20 12:16:00,
2013-01-20 07:17:00,38.1,28.8,29.52,WSW,240,13.0,19.0,69,0.00,,,0.05,Wunderground v.1.15,2013-01-20 12:17:00,
2013-01-20 07:19:00,38.1,28.1,29.51,West,271,13.0,19.0,67,0.00,,,0.05,Wunderground v.1.15,2013-01-20 12:19:00,
2013-01-20 07:21:00,38.2,28.2,29.52,WSW,246,14.0,20.0,67,0.00,,,0.05,Wunderground v.1.15,2013-01-20 12:21:00,
2013-01-20 07:22:00,38.2,28.2,29.52,WSW,257,14.0,20.0,67,0.00,,,0.05,Wunderground v.1.15,2013-01-20 12:22:00,
2013-01-20 07:24:00,38.2,28.2,29.52,West,281,14.0,20.0,67,0.00,,,0.05,Wunderground v.1.15,2013-01-20 12:24:00,
2013-01-20 07:25:00,38.2,27.8,29.52,WNW,296,13.0,20.0,66,0.00,,,0.05,Wunderground v.1.15,2013-01-20 12:25:00,
2013-01-20 07:27:00,38.1,28.5,29.52,West,275,13.0,20.0,68,0.00,,,0.05,Wunderground v.1.15,2013-01-20 12:27:00,
2013-01-20 07:30:00,38.1,27.7,29.52,West,267,12.0,14.0,66,0.00,,,0.05,Wunderground v.1.15,2013-01-20 12:30:00,
2013-01-20 07:31:00,38.1,28.1,29.52,WNW,283,12.0,14.0,67,0.00,,,0.05,Wunderground v.1.15,2013-01-20 12:31:00,
2013-01-20 07:32:00,38.1,27.7,29.53,WNW,288,11.0,14.0,66,0.00,,,0.05,Wunderground v.1.15,2013-01-20 12:32:00,
2013-01-20 07:34:00,38.1,28.1,29.52,West,273,11.0,14.0,67,0.00,,,0.05,Wunderground v.1.15,2013-01-20 12:34:00,
2013-01-20 07:38:00,37.6,29.0,29.53,NW,312,12.0,14.0,71,0.00,,,0.05,Wunderground v.1.15,2013-01-20 12:38:00,
2013-01-20 07:39:00,37.4,29.2,29.54,West,267,13.0,17.0,72,0.00,,,0.05,Wunderground v.1.15,2013-01-20 12:39:00,
2013-01-20 07:41:00,36.9,29.1,29.55,WNW,303,13.0,14.0,73,0.00,,,0.05,Wunderground v.1.15,2013-01-20 12:41:00,
2013-01-20 07:43:00,36.5,28.7,29.55,WSW,254,14.0,17.0,73,0.00,,,0.05,Wunderground v.1.15,2013-01-20 12:43:00,
2013-01-20 07:44:00,36.4,28.6,29.55,West,269,15.0,17.0,73,0.00,,,0.05,Wunderground v.1.15,2013-01-20 12:44:00,
2013-01-20 07:45:00,36.3,28.8,29.55,NW,309,15.0,17.0,74,0.00,,,0.05,Wunderground v.1.15,2013-01-20 12:45:00,
2013-01-20 07:49:00,35.8,28.6,29.56,WNW,296,16.0,18.0,75,0.00,,,0.05,Wunderground v.1.15,2013-01-20 12:49:00,
2013-01-20 07:50:00,35.7,28.6,29.56,West,273,16.0,16.0,75,0.00,,,0.05,Wunderground v.1.15,2013-01-20 12:50:00,
2013-01-20 07:51:00,35.6,28.5,29.56,WNW,287,16.0,16.0,75,0.00,,,0.05,Wunderground v.1.15,2013-01-20 12:51:00,
2013-01-20 07:53:00,35.4,27.9,29.56,WSW,241,16.0,22.0,74,0.00,,,0.05,Wunderground v.1.15,2013-01-20 12:53:00,
2013-01-20 07:56:00,35.2,27.7,29.56,West,265,17.0,22.0,74,0.00,,,0.05,Wunderground v.1.15,2013-01-20 12:56:00,
2013-01-20 07:57:00,35.1,28.0,29.57,WNW,292,17.0,22.0,75,0.00,,,0.05,Wunderground v.1.15,2013-01-20 12:57:00,
2013-01-20 08:02:00,34.8,27.7,29.57,West,281,18.0,23.0,75,0.00,,,0.05,Wunderground v.1.15,2013-01-20 13:02:00,
2013-01-20 08:03:00,34.7,27.6,29.57,WNW,287,18.0,23.0,75,0.00,,,0.05,Wunderground v.1.15,2013-01-20 13:03:00,
2013-01-20 08:07:00,34.8,27.0,29.57,West,276,16.0,23.0,73,0.00,,,0.05,Wunderground v.1.15,2013-01-20 13:07:00,
2013-01-20 08:09:00,34.9,26.8,29.57,WNW,290,17.0,23.0,72,0.00,,,0.05,Wunderground v.1.15,2013-01-20 13:09:00,
2013-01-20 08:13:00,35.0,26.5,29.58,WNW,300,15.0,18.0,71,0.00,,,0.05,Wunderground v.1.15,2013-01-20 13:13:00,
2013-01-20 08:14:00,35.0,26.5,29.58,WSW,256,15.0,18.0,71,0.00,,,0.05,Wunderground v.1.15,2013-01-20 13:14:00,
2013-01-20 08:19:00,35.2,25.7,29.58,SW,233,15.0,21.0,68,0.00,,,0.05,Wunderground v.1.15,2013-01-20 13:19:00,
2013-01-20 08:20:00,35.2,25.7,29.59,WNW,283,15.0,18.0,68,0.00,,,0.05,Wunderground v.1.15,2013-01-20 13:20:00,
2013-01-20 08:23:00,35.1,25.2,29.59,West,273,16.0,30.0,67,0.00,,,0.05,Wunderground v.1.15,2013-01-20 13:23:00,
2013-01-20 08:25:00,35.0,25.1,29.60,West,275,17.0,30.0,67,0.00,,,0.05,Wunderground v.1.15,2013-01-20 13:25:00,
2013-01-20 08:26:00,35.0,25.1,29.60,West,267,17.0,30.0,67,0.00,,,0.05,Wunderground v.1.15,2013-01-20 13:26:00,
2013-01-20 08:29:00,34.7,24.1,29.60,West,281,17.0,34.0,65,0.00,,,0.05,Wunderground v.1.15,2013-01-20 13:29:00,
2013-01-20 08:30:00,34.6,24.0,29.61,WSW,257,17.0,20.0,65,0.00,,,0.05,Wunderground v.1.15,2013-01-20 13:30:00,
2013-01-20 08:32:00,34.4,23.8,29.62,NW,309,17.0,22.0,65,0.00,,,0.05,Wunderground v.1.15,2013-01-20 13:32:00,
2013-01-20 08:36:00,34.1,23.6,29.61,West,263,15.0,22.0,65,0.00,,,0.05,Wunderground v.1.15,2013-01-20 13:36:00,
2013-01-20 08:38:00,33.9,22.6,29.64,SW,219,15.0,27.0,63,0.00,,,0.05,Wunderground v.1.15,2013-01-20 13:38:00,
2013-01-20 08:40:00,33.7,21.7,29.63,West,272,15.0,15.0,61,0.00,,,0.05,Wunderground v.1.15,2013-01-20 13:40:00,
2013-01-20 08:42:00,33.4,21.0,29.63,WSW,244,16.0,29.0,60,0.00,,,0.05,Wunderground v.1.15,2013-01-20 13:42:00,
2013-01-20 08:43:00,33.3,20.1,29.62,West,279,17.0,29.0,58,0.00,,,0.05,Wunderground v.1.15,2013-01-20 13:43:00,
2013-01-20 08:45:00,33.0,19.8,29.63,WSW,248,18.0,29.0,58,0.00,,,0.05,Wunderground v.1.15,2013-01-20 13:45:00,
2013-01-20 08:47:00,32.9,19.3,29.63,West,276,19.0,29.0,57,0.00,,,0.05,Wunderground v.1.15,2013-01-20 13:47:00,
2013-01-20 08:48:00,32.8,18.8,29.64,WSW,257,19.0,29.0,56,0.00,,,0.05,Wunderground v.1.15,2013-01-20 13:48:00,
2013-01-20 08:51:00,32.7,19.1,29.63,SW,222,19.0,19.0,57,0.00,,,0.05,Wunderground v.1.15,2013-01-20 13:51:00,
2013-01-20 08:53:00,32.6,18.2,29.65,WNW,283,19.0,28.0,55,0.00,,,0.05,Wunderground v.1.15,2013-01-20 13:53:00,
2013-01-20 08:54:00,32.6,18.6,29.64,SW,234,18.0,28.0,56,0.00,,,0.05,Wunderground v.1.15,2013-01-20 13:54:00,
2013-01-20 08:56:00,32.5,18.5,29.65,West,266,18.0,28.0,56,0.00,,,0.05,Wunderground v.1.15,2013-01-20 13:56:00,
2013-01-20 08:58:00,32.5,18.1,29.66,WSW,257,17.0,28.0,55,0.00,,,0.05,Wunderground v.1.15,2013-01-20 13:58:00,
2013-01-20 09:00:00,32.4,18.4,29.64,WNW,302,18.0,30.0,56,0.00,,,0.05,Wunderground v.1.15,2013-01-20 14:00:00,
2013-01-20 09:02:00,32.3,18.3,29.65,WNW,302,18.0,30.0,56,0.00,,,0.05,Wunderground v.1.15,2013-01-20 14:02:00,
2013-01-20 09:06:00,32.1,18.2,29.66,NW,309,18.0,30.0,56,0.00,,,0.05,Wunderground v.1.15,2013-01-20 14:06:00,
2013-01-20 09:07:00,32.1,18.6,29.66,West,263,17.0,30.0,57,0.00,,,0.05,Wunderground v.1.15,2013-01-20 14:07:00,
2013-01-20 09:09:00,32.1,18.6,29.67,WSW,251,16.0,30.0,57,0.00,,,0.05,Wunderground v.1.15,2013-01-20 14:09:00,
2013-01-20 09:11:00,32.1,18.6,29.67,WNW,303,15.0,22.0,57,0.00,,,0.05,Wunderground v.1.15,2013-01-20 14:11:00,
2013-01-20 09:12:00,32.1,18.6,29.66,West,261,15.0,22.0,57,0.00,,,0.05,Wunderground v.1.15,2013-01-20 14:12:00,
2013-01-20 09:15:00,32.0,18.5,29.67,WSW,252,14.0,26.0,57,0.00,,,0.05,Wunderground v.1.15,2013-01-20 14:15:00,
2013-01-20 09:17:00,32.0,18.5,29.67,WNW,302,15.0,26.0,57,0.00,,,0.05,Wunderground v.1.15,2013-01-20 14:17:00,
2013-01-20 09:20:00,31.9,18.4,29.67,SW,232,16.0,16.0,57,0.00,,,0.05,Wunderground v.1.15,2013-01-20 14:20:00,
2013-01-20 09:21:00,31.9,18.8,29.67,West,261,15.0,16.0,58,0.00,,,0.05,Wunderground v.1.15,2013-01-20 14:21:00,
2013-01-20 09:22:00,31.9,18.4,29.67,WNW,287,15.0,16.0,57,0.00,,,0.05,Wunderground v.1.15,2013-01-20 14:22:00,
2013-01-20 09:25:00,31.8,17.9,29.68,West,275,15.0,23.0,56,0.00,,,0.05,Wunderground v.1.15,2013-01-20 14:25:00,
2013-01-20 09:27:00,31.6,16.4,29.67,WNW,294,16.0,23.0,53,0.00,,,0.05,Wunderground v.1.15,2013-01-20 14:27:00,
2013-01-20 09:28:00,31.5,16.3,29.68,WSW,237,17.0,30.0,53,0.00,,,0.05,Wunderground v.1.15,2013-01-20 14:28:00,
2013-01-20 09:32:00,31.1,16.4,29.68,SW,227,18.0,18.0,54,0.00,,,0.05,Wunderground v.1.15,2013-01-20 14:32:00,
2013-01-20 09:33:00,31.1,16.8,29.68,WNW,284,18.0,18.0,55,0.00,,,0.05,Wunderground v.1.15,2013-01-20 14:33:00,
2013-01-20 09:35:00,31.1,16.8,29.69,WSW,243,18.0,18.0,55,0.00,,,0.05,Wunderground v.1.15,2013-01-20 14:35:00,
2013-01-20 09:38:00,31.1,17.2,29.68,West,273,16.0,19.0,56,0.00,,,0.05,Wunderground v.1.15,2013-01-20 14:38:00,
2013-01-20 09:41:00,31.1,17.2,29.70,WNW,289,15.0,16.0,56,0.00,,,0.05,Wunderground v.1.15,2013-01-20 14:41:00,
2013-01-20 09:42:00,31.2,17.3,29.69,WSW,257,14.0,16.0,56,0.00,,,0.05,Wunderground v.1.15,2013-01-20 14:42:00,
2013-01-20 09:43:00,31.2,16.9,29.69,WNW,283,14.0,16.0,55,0.00,,,0.05,Wunderground v.1.15,2013-01-20 14:43:00,
2013-01-20 09:46:00,31.3,17.0,29.70,West,271,12.0,16.0,55,0.00,,,0.05,Wunderground v.1.15,2013-01-20 14:46:00,
2013-01-20 09:48:00,31.4,17.5,29.70,West,267,12.0,16.0,56,0.00,,,0.05,Wunderground v.1.15,2013-01-20 14:48:00,
2013-01-20 09:50:00,31.4,17.1,29.70,WSW,250,12.0,21.0,55,0.00,,,0.05,Wunderground v.1.15,2013-01-20 14:50:00,
2013-01-20 09:52:00,31.4,16.7,29.70,West,276,13.0,21.0,54,0.00,,,0.05,Wunderground v.1.15,2013-01-20 14:52:00,
2013-01-20 09:54:00,31.4,17.1,29.70,WSW,252,13.0,21.0,55,0.00,,,0.05,Wunderground v.1.15,2013-01-20 14:54:00,
2013-01-20 09:57:00,31.4,17.5,29.71,West,260,13.0,21.0,56,0.00,,,0.05,Wunderground v.1.15,2013-01-20 14:57:00,
2013-01-20 09:58:00,31.4,16.7,29.71,West,279,13.0,21.0,54,0.00,,,0.05,Wunderground v.1.15,2013-01-20 14:58:00,
2013-01-20 10:01:00,31.3,16.1,29.71,WSW,257,14.0,21.0,53,0.00,,,0.05,Wunderground v.1.15,2013-01-20 15:01:00,
2013-01-20 10:04:00,31.1,16.8,29.71,WNW,287,14.0,21.0,55,0.00,,,0.05,Wunderground v.1.15,2013-01-20 15:04:00,
2013-01-20 10:06:00,31.0,16.3,29.70,WNW,289,15.0,21.0,54,0.00,,,0.05,Wunderground v.1.15,2013-01-20 15:06:00,
2013-01-20 10:08:00,30.8,16.5,29.71,WNW,296,16.0,21.0,55,0.00,,,0.05,Wunderground v.1.15,2013-01-20 15:08:00,
2013-01-20 10:09:00,30.8,16.5,29.72,West,265,15.0,21.0,55,0.00,,,0.05,Wunderground v.1.15,2013-01-20 15:09:00,
2013-01-20 10:11:00,30.7,16.8,29.72,WNW,291,14.0,20.0,56,0.00,,,0.05,Wunderground v.1.15,2013-01-20 15:11:00,
2013-01-20 10:12:00,30.7,16.8,29.71,WNW,303,14.0,20.0,56,0.00,,,0.05,Wunderground v.1.15,2013-01-20 15:12:00,
2013-01-20 10:13:00,30.6,16.7,29.72,West,260,14.0,20.0,56,0.00,,,0.05,Wunderground v.1.15,2013-01-20 15:13:00,
2013-01-20 10:17:00,30.6,16.7,29.71,WNW,294,14.0,26.0,56,0.00,,,0.05,Wunderground v.1.15,2013-01-20 15:17:00,
2013-01-20 10:18:00,30.5,16.2,29.72,WNW,288,14.0,26.0,55,0.00,,,0.05,Wunderground v.1.15,2013-01-20 15:18:00,
2013-01-20 10:20:00,30.4,16.1,29.72,WNW,282,15.0,26.0,55,0.00,,,0.05,Wunderground v.1.15,2013-01-20 15:20:00,
2013-01-20 10:22:00,30.4,16.1,29.73,West,281,16.0,26.0,55,0.00,,,0.05,Wunderground v.1.15,2013-01-20 15:22:00,
2013-01-20 10:24:00,30.4,16.1,29.73,West,273,16.0,26.0,55,0.00,,,0.05,Wunderground v.1.15,2013-01-20 15:24:00,
2013-01-20 10:25:00,30.5,16.2,29.73,WNW,284,16.0,26.0,55,0.00,,,0.05,Wunderground v.1.15,2013-01-20 15:25:00,
2013-01-20 10:27:00,30.4,16.6,29.73,WSW,249,15.0,26.0,56,0.00,,,0.05,Wunderground v.1.15,2013-01-20 15:27:00,
2013-01-20 10:30:00,30.3,16.5,29.73,West,270,13.0,13.0,56,0.00,,,0.05,Wunderground v.1.15,2013-01-20 15:30:00,
2013-01-20 10:33:00,30.2,15.5,29.73,West,265,14.0,24.0,54,0.00,,,0.05,Wunderground v.1.15,2013-01-20 15:33:00,
2013-01-20 10:36:00,29.9,15.3,29.73,WSW,241,15.0,24.0,54,0.00,,,0.05,Wunderground v.1.15,2013-01-20 15:36:00,
2013-01-20 10:39:00,29.7,15.9,29.74,WNW,284,16.0,24.0,56,0.00,,,0.05,Wunderground v.1.15,2013-01-20 15:39:00,
2013-01-20 10:41:00,29.6,15.4,29.74,West,274,18.0,30.0,55,0.00,,,0.05,Wunderground v.1.15,2013-01-20 15:41:00,
2013-01-20 10:45:00,29.6,16.2,29.74,SW,232,16.0,30.0,57,0.00,,,0.05,Wunderground v.1.15,2013-01-20 15:45:00,
2013-01-20 10:46:00,29.6,15.8,29.74,West,269,15.0,30.0,56,0.00,,,0.05,Wunderground v.1.15,2013-01-20 15:46:00,
2013-01-20 10:47:00,29.6,16.2,29.74,West,265,14.0,30.0,57,0.00,,,0.05,Wunderground v.1.15,2013-01-20 15:47:00,
2013-01-20 10:52:00,29.7,16.3,29.74,West,259,12.0,23.0,57,0.00,,,0.05,Wunderground v.1.15,2013-01-20 15:52:00,
2013-01-20 10:54:00,29.7,15.9,29.75,West,263,12.0,23.0,56,0.00,,,0.05,Wunderground v.1.15,2013-01-20 15:54:00,
2013-01-20 10:55:00,29.7,16.7,29.75,WSW,258,12.0,23.0,58,0.00,,,0.05,Wunderground v.1.15,2013-01-20 15:55:00,
2013-01-20 10:56:00,29.7,16.7,29.75,WNW,282,12.0,23.0,58,0.00,,,0.05,Wunderground v.1.15,2013-01-20 15:56:00,
2013-01-20 10:59:00,29.8,16.8,29.75,West,277,11.0,23.0,58,0.00,,,0.05,Wunderground v.1.15,2013-01-20 15:59:00,
2013-01-20 11:02:00,29.6,16.2,29.75,SW,223,12.0,20.0,57,0.00,,,0.05,Wunderground v.1.15,2013-01-20 16:02:00,
2013-01-20 11:04:00,29.5,16.9,29.75,WNW,289,12.0,20.0,59,0.00,,,0.05,Wunderground v.1.15,2013-01-20 16:04:00,
2013-01-20 11:07:00,29.3,17.1,29.75,West,265,13.0,20.0,60,0.00,,,0.05,Wunderground v.1.15,2013-01-20 16:07:00,
2013-01-20 11:08:00,29.3,17.1,29.75,West,274,13.0,20.0,60,0.00,,,0.05,Wunderground v.1.15,2013-01-20 16:08:00,
2013-01-20 11:12:00,29.3,18.3,29.76,WNW,301,11.0,20.0,63,0.00,,,0.05,Wunderground v.1.15,2013-01-20 16:12:00,
2013-01-20 11:13:00,29.3,18.3,29.76,NW,306,10.0,20.0,63,0.00,,,0.05,Wunderground v.1.15,2013-01-20 16:13:00,
2013-01-20 11:14:00,29.2,18.5,29.76,NW,309,11.0,20.0,64,0.00,,,0.05,Wunderground v.1.15,2013-01-20 16:14:00,
2013-01-20 11:18:00,28.9,18.6,29.75,West,273,11.0,20.0,65,0.00,,,0.05,Wunderground v.1.15,2013-01-20 16:18:00,
2013-01-20 11:19:00,28.8,18.9,29.75,WNW,283,11.0,20.0,66,0.00,,,0.05,Wunderground v.1.15,2013-01-20 16:19:00,
2013-01-20 11:20:00,28.8,18.9,29.75,WNW,302,11.0,20.0,66,0.00,,,0.05,Wunderground v.1.15,2013-01-20 16:20:00,
2013-01-20 11:21:00,28.8,18.9,29.75,West,259,11.0,20.0,66,0.00,,,0.05,Wunderground v.1.15,2013-01-20 16:21:00,
2013-01-20 11:24:00,28.7,19.1,29.76,WNW,287,12.0,20.0,67,0.00,,,0.05,Wunderground v.1.15,2013-01-20 16:24:00,
2013-01-20 11:25:00,28.7,19.1,29.75,WNW,283,12.0,20.0,67,0.00,,,0.05,Wunderground v.1.15,2013-01-20 16:25:00,
2013-01-20 11:27:00,28.6,19.0,29.76,West,281,11.0,20.0,67,0.00,,,0.05,Wunderground v.1.15,2013-01-20 16:27:00,
2013-01-20 11:30:00,28.5,19.3,29.76,NW,325,11.0,27.0,68,0.00,,,0.05,Wunderground v.1.15,2013-01-20 16:30:00,
2013-01-20 11:33:00,27.9,20.0,29.77,West,270,11.0,27.0,72,0.00,,,0.05,Wunderground v.1.15,2013-01-20 16:33:00,
2013-01-20 11:34:00,27.7,19.8,29.77,WNW,286,11.0,27.0,72,0.00,,,0.05,Wunderground v.1.15,2013-01-20 16:34:00,
2013-01-20 11:35:00,27.6,20.1,29.77,NW,317,11.0,27.0,73,0.00,,,0.05,Wunderground v.1.15,2013-01-20 16:35:00,
2013-01-20 11:36:00,27.5,20.0,29.77,NW,320,12.0,27.0,73,0.00,,,0.05,Wunderground v.1.15,2013-01-20 16:36:00,
2013-01-20 11:39:00,27.1,19.3,29.77,WNW,300,13.0,27.0,72,0.00,,,0.05,Wunderground v.1.15,2013-01-20 16:39:00,
2013-01-20 11:41:00,27.0,18.8,29.76,WNW,302,13.0,20.0,71,0.00,,,0.05,Wunderground v.1.15,2013-01-20 16:41:00,
2013-01-20 11:42:00,27.0,18.8,29.78,WSW,250,12.0,20.0,71,0.00,,,0.05,Wunderground v.1.15,2013-01-20 16:42:00,
2013-01-20 11:47:00,27.0,18.5,29.77,West,272,13.0,27.0,70,0.00,,,0.05,Wunderground v.1.15,2013-01-20 16:47:00,
2013-01-20 11:50:00,27.2,18.4,29.77,WSW,240,12.0,12.0,69,0.00,,,0.05,Wunderground v.1.15,2013-01-20 16:50:00,
2013-01-20 11:53:00,27.3,17.4,29.78,WNW,286,11.0,20.0,66,0.00,,,0.05,Wunderground v.1.15,2013-01-20 16:53:00,
2013-01-20 11:54:00,27.3,17.1,29.77,West,272,10.0,20.0,65,0.00,,,0.05,Wunderground v.1.15,2013-01-20 16:54:00,
2013-01-20 11:56:00,27.2,16.6,29.78,WSW,245,11.0,20.0,64,0.00,,,0.05,Wunderground v.1.15,2013-01-20 16:56:00,
2013-01-20 11:57:00,27.2,16.6,29.77,West,271,11.0,20.0,64,0.00,,,0.05,Wunderground v.1.15,2013-01-20 16:57:00,
2013-01-20 11:59:00,27.2,16.3,29.78,WNW,284,13.0,20.0,63,0.00,,,0.05,Wunderground v.1.15,2013-01-20 16:59:00,
2013-01-20 12:01:00,27.2,16.6,29.78,West,263,14.0,14.0,64,0.00,,,0.05,Wunderground v.1.15,2013-01-20 17:01:00,
2013-01-20 12:03:00,27.2,17.0,29.78,West,271,14.0,20.0,65,0.00,,,0.05,Wunderground v.1.15,2013-01-20 17:03:00,
2013-01-20 12:04:00,27.2,17.0,29.78,West,275,14.0,20.0,65,0.00,,,0.05,Wunderground v.1.15,2013-01-20 17:04:00,
2013-01-20 12:05:00,27.3,17.1,29.78,WSW,242,14.0,20.0,65,0.00,,,0.05,Wunderground v.1.15,2013-01-20 17:05:00,
2013-01-20 12:07:00,27.3,17.4,29.78,WNW,290,12.0,20.0,66,0.00,,,0.05,Wunderground v.1.15,2013-01-20 17:07:00,
2013-01-20 12:09:00,27.4,17.5,29.78,WNW,292,11.0,20.0,66,0.00,,,0.05,Wunderground v.1.15,2013-01-20 17:09:00,
2013-01-20 12:10:00,27.3,17.8,29.78,WNW,284,11.0,11.0,67,0.00,,,0.05,Wunderground v.1.15,2013-01-20 17:10:00,
2013-01-20 12:11:00,27.2,17.7,29.78,WSW,254,11.0,15.0,67,0.00,,,0.05,Wunderground v.1.15,2013-01-20 17:11:00,
2013-01-20 12:16:00,26.6,16.1,29.78,WSW,254,13.0,23.0,64,0.00,,,0.05,Wunderground v.1.15,2013-01-20 17:16:00,
2013-01-20 12:17:00,26.5,15.6,29.78,West,280,14.0,23.0,63,0.00,,,0.05,Wunderground v.1.15,2013-01-20 17:17:00,
2013-01-20 12:18:00,26.3,15.4,29.79,West,262,15.0,23.0,63,0.00,,,0.05,Wunderground v.1.15,2013-01-20 17:18:00,
2013-01-20 12:24:00,26.2,15.3,29.79,WNW,290,14.0,24.0,63,0.00,,,0.05,Wunderground v.1.15,2013-01-20 17:24:00,
2013-01-20 12:26:00,26.3,15.8,29.80,WSW,238,13.0,24.0,64,0.00,,,0.05,Wunderground v.1.15,2013-01-20 17:26:00,
2013-01-20 12:28:00,26.3,15.8,29.79,WSW,246,12.0,24.0,64,0.00,,,0.05,Wunderground v.1.15,2013-01-20 17:28:00,
2013-01-20 12:29:00,26.3,15.8,29.79,NW,324,12.0,24.0,64,0.00,,,0.05,Wunderground v.1.15,2013-01-20 17:29:00,
2013-01-20 12:33:00,26.4,15.5,29.79,SW,234,11.0,20.0,63,0.00,,,0.05,Wunderground v.1.15,2013-01-20 17:33:00,
2013-01-20 12:34:00,26.4,15.5,29.80,WNW,282,11.0,20.0,63,0.00,,,0.05,Wunderground v.1.15,2013-01-20 17:34:00,
2013-01-20 12:36:00,26.4,15.1,29.79,WNW,291,12.0,20.0,62,0.00,,,0.05,Wunderground v.1.15,2013-01-20 17:36:00,
2013-01-20 12:39:00,26.4,15.5,29.80,West,261,12.0,20.0,63,0.00,,,0.05,Wunderground v.1.15,2013-01-20 17:39:00,
2013-01-20 12:40:00,26.4,15.1,29.80,SW,229,13.0,20.0,62,0.00,,,0.05,Wunderground v.1.15,2013-01-20 17:40:00,
2013-01-20 12:42:00,26.3,15.0,29.80,West,263,14.0,20.0,62,0.00,,,0.05,Wunderground v.1.15,2013-01-20 17:42:00,
2013-01-20 12:44:00,26.4,15.5,29.81,West,276,14.0,20.0,63,0.00,,,0.05,Wunderground v.1.15,2013-01-20 17:44:00,
2013-01-20 12:45:00,26.4,15.1,29.80,WNW,284,14.0,20.0,62,0.00,,,0.05,Wunderground v.1.15,2013-01-20 17:45:00,
2013-01-20 12:46:00,26.4,15.5,29.80,NW,314,13.0,20.0,63,0.00,,,0.05,Wunderground v.1.15,2013-01-20 17:46:00,
2013-01-20 12:48:00,26.5,15.6,29.80,WNW,289,13.0,20.0,63,0.00,,,0.05,Wunderground v.1.15,2013-01-20 17:48:00,
2013-01-20 12:50:00,26.6,15.7,29.81,West,269,12.0,12.0,63,0.00,,,0.05,Wunderground v.1.15,2013-01-20 17:50:00,
2013-01-20 12:51:00,26.6,15.7,29.81,West,279,11.0,13.0,63,0.00,,,0.05,Wunderground v.1.15,2013-01-20 17:51:00,
2013-01-20 12:53:00,26.7,15.8,29.81,West,259,10.0,20.0,63,0.00,,,0.05,Wunderground v.1.15,2013-01-20 17:53:00,
2013-01-20 12:55:00,26.8,15.9,29.81,West,272,10.0,20.0,63,0.00,,,0.05,Wunderground v.1.15,2013-01-20 17:55:00,
2013-01-20 12:56:00,26.7,15.8,29.81,WNW,300,11.0,20.0,63,0.00,,,0.05,Wunderground v.1.15,2013-01-20 17:56:00,
2013-01-20 12:59:00,26.7,15.4,29.81,NW,323,12.0,20.0,62,0.00,,,0.05,Wunderground v.1.15,2013-01-20 17:59:00,
2013-01-20 13:01:00,26.6,15.7,29.82,WNW,289,12.0,20.0,63,0.00,,,0.05,Wunderground v.1.15,2013-01-20 18:01:00,
2013-01-20 13:02:00,26.6,14.9,29.82,NW,304,13.0,20.0,61,0.00,,,0.05,Wunderground v.1.15,2013-01-20 18:02:00,
2013-01-20 13:04:00,26.5,14.9,29.81,West,275,13.0,20.0,61,0.00,,,0.05,Wunderground v.1.15,2013-01-20 18:04:00,
2013-01-20 13:06:00,26.4,15.5,29.82,WNW,290,14.0,20.0,63,0.00,,,0.05,Wunderground v.1.15,2013-01-20 18:06:00,
2013-01-20 13:07:00,26.4,15.1,29.82,West,281,14.0,20.0,62,0.00,,,0.05,Wunderground v.1.15,2013-01-20 18:07:00,
2013-01-20 13:09:00,26.2,14.6,29.82,West,280,14.0,27.0,61,0.00,,,0.05,Wunderground v.1.15,2013-01-20 18:09:00,
2013-01-20 13:12:00,26.0,14.8,29.83,WNW,294,16.0,21.0,62,0.00,,,0.05,Wunderground v.1.15,2013-01-20 18:12:00,
2013-01-20 13:16:00,25.9,14.3,29.83,SW,218,15.0,21.0,61,0.00,,,0.05,Wunderground v.1.15,2013-01-20 18:16:00,
2013-01-20 13:17:00,25.9,14.3,29.83,West,275,15.0,21.0,61,0.00,,,0.05,Wunderground v.1.15,2013-01-20 18:17:00,
2013-01-20 13:20:00,26.0,15.1,29.83,West,276,14.0,14.0,63,0.00,,,0.05,Wunderground v.1.15,2013-01-20 18:20:00,
2013-01-20 13:22:00,26.0,15.1,29.83,West,266,12.0,20.0,63,0.00,,,0.05,Wunderground v.1.15,2013-01-20 18:22:00,
2013-01-20 13:26:00,25.9,15.0,29.84,WNW,286,12.0,21.0,63,0.00,,,0.05,Wunderground v.1.15,2013-01-20 18:26:00,
2013-01-20 13:28:00,25.9,15.4,29.84,West,260,11.0,21.0,64,0.00,,,0.05,Wunderground v.1.15,2013-01-20 18:28:00,
2013-01-20 13:29:00,25.8,15.6,29.84,WSW,253,11.0,21.0,65,0.00,,,0.05,Wunderground v.1.15,2013-01-20 18:29:00,
2013-01-20 13:32:00,25.6,15.1,29.84,WNW,282,12.0,23.0,64,0.00,,,0.05,Wunderground v.1.15,2013-01-20 18:32:00,
2013-01-20 13:34:00,25.5,15.4,29.84,West,267,12.0,23.0,65,0.00,,,0.05,Wunderground v.1.15,2013-01-20 18:34:00,
2013-01-20 13:38:00,25.6,15.5,29.85,West,260,12.0,23.0,65,0.00,,,0.05,Wunderground v.1.15,2013-01-20 18:38:00,
2013-01-20 13:39:00,25.6,14.7,29.85,West,279,13.0,23.0,63,0.00,,,0.05,Wunderground v.1.15,2013-01-20 18:39:00,
2013-01-20 13:40:00,25.6,15.1,29.85,West,274,13.0,13.0,64,0.00,,,0.05,Wunderground v.1.15,2013-01-20 18:40:00,
2013-01-20 13:45:00,25.2,14.0,29.85,West,263,13.0,20.0,62,0.00,,,0.05,Wunderground v.1.15,2013-01-20 18:45:00,
2013-01-20 13:46:00,25.1,13.5,29.85,West,280,14.0,20.0,61,0.00,,,0.05,Wunderground v.1.15,2013-01-20 18:46:00,
2013-01-20 13:47:00,25.0,13.8,29.85,WNW,288,14.0,20.0,62,0.00,,,0.05,Wunderground v.1.15,2013-01-20 18:47:00,
2013-01-20 13:49:00,25.0,13.8,29.85,WNW,302,13.0,20.0,62,0.00,,,0.05,Wunderground v.1.15,2013-01-20 18:49:00,
2013-01-20 13:52:00,25.0,14.2,29.85,West,272,13.0,20.0,63,0.00,,,0.05,Wunderground v.1.15,2013-01-20 18:52:00,
2013-01-20 13:54:00,25.0,13.8,29.85,West,271,13.0,20.0,62,0.00,,,0.05,Wunderground v.1.15,2013-01-20 18:54:00,
2013-01-20 13:55:00,25.0,13.8,29.85,West,261,13.0,20.0,62,0.00,,,0.05,Wunderground v.1.15,2013-01-20 18:55:00,
2013-01-20 13:59:00,24.9,14.1,29.86,West,267,14.0,21.0,63,0.00,,,0.05,Wunderground v.1.15,2013-01-20 18:59:00,
2013-01-20 14:00:00,25.0,13.8,29.86,WSW,254,13.0,13.0,62,0.00,,,0.05,Wunderground v.1.15,2013-01-20 19:00:00,
2013-01-20 14:01:00,24.9,13.7,29.86,WSW,256,14.0,14.0,62,0.00,,,0.05,Wunderground v.1.15,2013-01-20 19:01:00,
2013-01-20 14:04:00,24.9,13.3,29.86,West,276,14.0,20.0,61,0.00,,,0.05,Wunderground v.1.15,2013-01-20 19:04:00,
2013-01-20 14:05:00,24.9,13.3,29.86,WNW,294,14.0,20.0,61,0.00,,,0.05,Wunderground v.1.15,2013-01-20 19:05:00,
2013-01-20 14:06:00,24.8,13.2,29.86,WNW,282,14.0,20.0,61,0.00,,,0.05,Wunderground v.1.15,2013-01-20 19:06:00,
2013-01-20 14:11:00,24.8,12.5,29.86,West,270,13.0,20.0,59,0.00,,,0.05,Wunderground v.1.15,2013-01-20 19:11:00,
2013-01-20 14:12:00,24.8,12.5,29.87,West,269,13.0,20.0,59,0.00,,,0.05,Wunderground v.1.15,2013-01-20 19:12:00,
2013-01-20 14:13:00,24.8,12.5,29.87,West,271,12.0,20.0,59,0.00,,,0.05,Wunderground v.1.15,2013-01-20 19:13:00,
2013-01-20 14:18:00,25.1,12.4,29.88,West,261,10.0,20.0,58,0.00,,,0.05,Wunderground v.1.15,2013-01-20 19:18:00,
2013-01-20 14:19:00,25.1,12.4,29.88,SSW,207,10.0,20.0,58,0.00,,,0.05,Wunderground v.1.15,2013-01-20 19:19:00,
2013-01-20 14:21:00,25.0,12.7,29.88,WNW,298,10.0,20.0,59,0.00,,,0.05,Wunderground v.1.15,2013-01-20 19:21:00,
2013-01-20 14:26:00,24.7,13.9,29.88,WSW,237,11.0,20.0,63,0.00,,,0.05,Wunderground v.1.15,2013-01-20 19:26:00,
2013-01-20 14:27:00,24.6,13.8,29.88,West,271,11.0,20.0,63,0.00,,,0.05,Wunderground v.1.15,2013-01-20 19:27:00,
2013-01-20 14:28:00,24.5,13.7,29.88,West,277,11.0,20.0,63,0.00,,,0.05,Wunderground v.1.15,2013-01-20 19:28:00,
2013-01-20 14:30:00,24.4,13.6,29.88,WNW,283,11.0,11.0,63,0.00,,,0.05,Wunderground v.1.15,2013-01-20 19:30:00,
2013-01-20 14:33:00,24.5,14.1,29.89,WNW,286,10.0,20.0,64,0.00,,,0.05,Wunderground v.1.15,2013-01-20 19:33:00,
2013-01-20 14:34:00,24.5,13.7,29.89,WSW,254,10.0,20.0,63,0.00,,,0.05,Wunderground v.1.15,2013-01-20 19:34:00,
2013-01-20 14:36:00,24.5,13.3,29.88,West,272,10.0,20.0,62,0.00,,,0.05,Wunderground v.1.15,2013-01-20 19:36:00,
2013-01-20 14:37:00,24.5,13.7,29.89,WNW,284,10.0,20.0,63,0.00,,,0.05,Wunderground v.1.15,2013-01-20 19:37:00,
2013-01-20 14:39:00,24.5,14.1,29.89,West,268,9.0,20.0,64,0.00,,,0.05,Wunderground v.1.15,2013-01-20 19:39:00,
2013-01-20 14:40:00,24.6,14.1,29.89,NW,304,8.0,20.0,64,0.00,,,0.05,Wunderground v.1.15,2013-01-20 19:40:00,
2013-01-20 14:43:00,24.5,13.3,29.88,WNW,300,10.0,20.0,62,0.00,,,0.05,Wunderground v.1.15,2013-01-20 19:43:00,
2013-01-20 14:44:00,24.4,13.6,29.89,West,273,10.0,20.0,63,0.00,,,0.05,Wunderground v.1.15,2013-01-20 19:44:00,
2013-01-20 14:45:00,24.2,13.0,29.89,West,277,10.0,20.0,62,0.00,,,0.05,Wunderground v.1.15,2013-01-20 19:45:00,
2013-01-20 14:47:00,24.0,13.2,29.90,NW,317,11.0,20.0,63,0.00,,,0.05,Wunderground v.1.15,2013-01-20 19:47:00,
2013-01-20 14:50:00,23.9,13.1,29.89,West,267,12.0,12.0,63,0.00,,,0.05,Wunderground v.1.15,2013-01-20 19:50:00,
2013-01-20 14:51:00,23.9,13.1,29.90,WNW,295,12.0,20.0,63,0.00,,,0.05,Wunderground v.1.15,2013-01-20 19:51:00,
2013-01-20 14:52:00,23.8,13.4,29.90,West,265,11.0,20.0,64,0.00,,,0.05,Wunderground v.1.15,2013-01-20 19:52:00,
2013-01-20 14:55:00,23.9,12.8,29.90,WNW,303,10.0,20.0,62,0.00,,,0.05,Wunderground v.1.15,2013-01-20 19:55:00,
2013-01-20 14:57:00,23.9,12.4,29.90,WSW,257,10.0,20.0,61,0.00,,,0.05,Wunderground v.1.15,2013-01-20 19:57:00,
2013-01-20 14:59:00,23.9,12.0,29.90,WNW,284,10.0,20.0,60,0.00,,,0.05,Wunderground v.1.15,2013-01-20 19:59:00,
2013-01-20 15:00:00,23.9,12.0,29.90,West,279,10.0,10.0,60,0.00,,,0.05,Wunderground v.1.15,2013-01-20 20:00:00,
2013-01-20 15:03:00,24.0,12.5,29.90,West,270,10.0,20.0,61,0.00,,,0.05,Wunderground v.1.15,2013-01-20 20:03:00,
2013-01-20 15:04:00,24.0,12.5,29.90,West,272,10.0,20.0,61,0.00,,,0.05,Wunderground v.1.15,2013-01-20 20:04:00,
2013-01-20 15:06:00,24.1,12.2,29.90,WNW,302,10.0,20.0,60,0.00,,,0.05,Wunderground v.1.15,2013-01-20 20:06:00,
2013-01-20 15:08:00,24.1,12.2,29.91,WSW,252,10.0,20.0,60,0.00,,,0.05,Wunderground v.1.15,2013-01-20 20:08:00,
2013-01-20 15:09:00,24.0,12.1,29.91,West,267,11.0,20.0,60,0.00,,,0.05,Wunderground v.1.15,2013-01-20 20:09:00,
2013-01-20 15:10:00,24.0,12.5,29.91,West,263,10.0,20.0,61,0.00,,,0.05,Wunderground v.1.15,2013-01-20 20:10:00,
2013-01-20 15:11:00,23.9,12.4,29.91,West,273,10.0,20.0,61,0.00,,,0.05,Wunderground v.1.15,2013-01-20 20:11:00,
2013-01-20 15:13:00,23.9,12.8,29.91,West,275,10.0,20.0,62,0.00,,,0.05,Wunderground v.1.15,2013-01-20 20:13:00,
2013-01-20 15:14:00,23.9,12.8,29.91,West,268,11.0,20.0,62,0.00,,,0.05,Wunderground v.1.15,2013-01-20 20:14:00,
2013-01-20 15:15:00,23.9,12.8,29.91,WSW,257,10.0,20.0,62,0.00,,,0.05,Wunderground v.1.15,2013-01-20 20:15:00,
2013-01-20 15:17:00,23.9,12.8,29.91,WSW,257,10.0,20.0,62,0.00,,,0.05,Wunderground v.1.15,2013-01-20 20:17:00,
2013-01-20 15:19:00,23.9,12.4,29.91,WNW,283,10.0,20.0,61,0.00,,,0.05,Wunderground v.1.15,2013-01-20 20:19:00,
2013-01-20 15:21:00,23.9,12.4,29.91,West,261,9.0,11.0,61,0.00,,,0.05,Wunderground v.1.15,2013-01-20 20:21:00,
2013-01-20 15:22:00,24.0,12.5,29.91,WNW,301,9.0,20.0,61,0.00,,,0.05,Wunderground v.1.15,2013-01-20 20:22:00,
2013-01-20 15:24:00,24.0,12.9,29.91,WNW,286,9.0,20.0,62,0.00,,,0.05,Wunderground v.1.15,2013-01-20 20:24:00,
2013-01-20 15:27:00,23.9,12.4,29.91,West,278,9.0,20.0,61,0.00,,,0.05,Wunderground v.1.15,2013-01-20 20:27:00,
2013-01-20 15:29:00,23.8,11.9,29.91,West,274,10.0,20.0,60,0.00,,,0.05,Wunderground v.1.15,2013-01-20 20:29:00,
2013-01-20 15:30:00,23.8,11.9,29.91,WSW,257,10.0,20.0,60,0.00,,,0.05,Wunderground v.1.15,2013-01-20 20:30:00,
2013-01-20 15:33:00,23.7,11.8,29.92,WNW,297,10.0,20.0,60,0.00,,,0.05,Wunderground v.1.15,2013-01-20 20:33:00,
2013-01-20 15:34:00,23.7,12.2,29.91,NNW,340,10.0,20.0,61,0.00,,,0.05,Wunderground v.1.15,2013-01-20 20:34:00,
2013-01-20 15:36:00,23.7,12.2,29.91,SW,234,10.0,20.0,61,0.00,,,0.05,Wunderground v.1.15,2013-01-20 20:36:00,
2013-01-20 15:37:00,23.7,12.2,29.91,WSW,258,10.0,20.0,61,0.00,,,0.05,Wunderground v.1.15,2013-01-20 20:37:00,
2013-01-20 15:39:00,23.7,12.2,29.91,West,277,9.0,20.0,61,0.00,,,0.05,Wunderground v.1.15,2013-01-20 20:39:00,
2013-01-20 15:41:00,23.6,12.1,29.91,WSW,246,10.0,20.0,61,0.00,,,0.05,Wunderground v.1.15,2013-01-20 20:41:00,
2013-01-20 15:45:00,23.4,13.0,29.92,WNW,290,10.0,20.0,64,0.00,,,0.05,Wunderground v.1.15,2013-01-20 20:45:00,
2013-01-20 15:46:00,23.3,12.6,29.92,West,278,10.0,20.0,63,0.00,,,0.05,Wunderground v.1.15,2013-01-20 20:46:00,
2013-01-20 15:49:00,23.3,12.9,29.92,WSW,248,9.0,20.0,64,0.00,,,0.05,Wunderground v.1.15,2013-01-20 20:49:00,
2013-01-20 15:50:00,23.3,12.6,29.92,WNW,283,9.0,9.0,63,0.00,,,0.05,Wunderground v.1.15,2013-01-20 20:50:00,
2013-01-20 15:52:00,23.3,12.9,29.92,West,264,8.0,20.0,64,0.00,,,0.05,Wunderground v.1.15,2013-01-20 20:52:00,
2013-01-20 15:55:00,23.4,13.0,29.93,West,260,8.0,20.0,64,0.00,,,0.05,Wunderground v.1.15,2013-01-20 20:55:00,
2013-01-20 15:56:00,23.3,12.6,29.92,West,268,8.0,20.0,63,0.00,,,0.05,Wunderground v.1.15,2013-01-20 20:56:00,
2013-01-20 15:57:00,23.3,12.6,29.92,WNW,287,8.0,20.0,63,0.00,,,0.05,Wunderground v.1.15,2013-01-20 20:57:00,
2013-01-20 16:00:00,23.3,12.6,29.92,West,265,9.0,9.0,63,0.00,,,0.05,Wunderground v.1.15,2013-01-20 21:00:00,
2013-01-20 16:01:00,23.2,12.5,29.93,West,279,9.0,20.0,63,0.00,,,0.05,Wunderground v.1.15,2013-01-20 21:01:00,
2013-01-20 16:06:00,23.2,12.5,29.93,West,264,8.0,20.0,63,0.00,,,0.05,Wunderground v.1.15,2013-01-20 21:06:00,
2013-01-20 16:08:00,23.1,12.7,29.93,West,271,8.0,20.0,64,0.00,,,0.05,Wunderground v.1.15,2013-01-20 21:08:00,
2013-01-20 16:10:00,23.1,12.7,29.93,WNW,302,8.0,8.0,64,0.00,,,0.05,Wunderground v.1.15,2013-01-20 21:10:00,
2013-01-20 16:11:00,23.1,12.4,29.93,West,264,8.0,11.0,63,0.00,,,0.05,Wunderground v.1.15,2013-01-20 21:11:00,
2013-01-20 16:13:00,23.1,12.0,29.93,West,269,8.0,20.0,62,0.00,,,0.05,Wunderground v.1.15,2013-01-20 21:13:00,
2013-01-20 16:15:00,23.0,12.3,29.93,WSW,245,9.0,20.0,63,0.00,,,0.05,Wunderground v.1.15,2013-01-20 21:15:00,
2013-01-20 16:17:00,23.0,12.3,29.93,WSW,248,8.0,20.0,63,0.00,,,0.05,Wunderground v.1.15,2013-01-20 21:17:00,
2013-01-20 16:19:00,23.0,12.6,29.93,West,266,8.0,20.0,64,0.00,,,0.05,Wunderground v.1.15,2013-01-20 21:19:00,
2013-01-20 16:22:00,22.9,12.5,29.93,West,263,8.0,20.0,64,0.00,,,0.05,Wunderground v.1.15,2013-01-20 21:22:00,
2013-01-20 16:23:00,22.9,12.5,29.93,WNW,282,8.0,20.0,64,0.00,,,0.05,Wunderground v.1.15,2013-01-20 21:23:00,
2013-01-20 16:27:00,22.8,12.4,29.93,NW,311,8.0,20.0,64,0.00,,,0.05,Wunderground v.1.15,2013-01-20 21:27:00,
2013-01-20 16:28:00,22.8,12.8,29.93,NW,304,7.0,20.0,65,0.00,,,0.05,Wunderground v.1.15,2013-01-20 21:28:00,
2013-01-20 16:29:00,22.7,12.7,29.93,WSW,256,8.0,20.0,65,0.00,,,0.05,Wunderground v.1.15,2013-01-20 21:29:00,
2013-01-20 16:30:00,22.8,12.8,29.93,WSW,248,7.0,20.0,65,0.00,,,0.05,Wunderground v.1.15,2013-01-20 21:30:00,
2013-01-20 16:34:00,22.7,12.7,29.94,WSW,240,7.0,20.0,65,0.00,,,0.05,Wunderground v.1.15,2013-01-20 21:34:00,
2013-01-20 16:36:00,22.7,13.0,29.93,WSW,253,7.0,20.0,66,0.00,,,0.05,Wunderground v.1.15,2013-01-20 21:36:00,
2013-01-20 16:38:00,22.7,13.0,29.94,West,259,7.0,20.0,66,0.00,,,0.05,Wunderground v.1.15,2013-01-20 21:38:00,
2013-01-20 16:39:00,22.7,13.4,29.94,WSW,255,6.0,20.0,67,0.00,,,0.05,Wunderground v.1.15,2013-01-20 21:39:00,
2013-01-20 16:43:00,22.6,13.6,29.94,WSW,257,7.0,20.0,68,0.00,,,0.05,Wunderground v.1.15,2013-01-20 21:43:00,
2013-01-20 16:44:00,22.5,13.5,29.94,West,261,7.0,20.0,68,0.00,,,0.05,Wunderground v.1.15,2013-01-20 21:44:00,
2013-01-20 16:45:00,22.5,13.5,29.94,WNW,291,7.0,20.0,68,0.00,,,0.05,Wunderground v.1.15,2013-01-20 21:45:00,
2013-01-20 16:47:00,22.5,13.5,29.94,West,275,7.0,20.0,68,0.00,,,0.05,Wunderground v.1.15,2013-01-20 21:47:00,
2013-01-20 16:52:00,22.4,13.1,29.94,NW,304,5.0,20.0,67,0.00,,,0.05,Wunderground v.1.15,2013-01-20 21:52:00,
2013-01-20 16:53:00,22.4,13.1,29.94,West,270,5.0,20.0,67,0.00,,,0.05,Wunderground v.1.15,2013-01-20 21:53:00,
2013-01-20 16:56:00,22.4,13.4,29.94,SW,236,6.0,20.0,68,0.00,,,0.05,Wunderground v.1.15,2013-01-20 21:56:00,
2013-01-20 16:57:00,22.4,13.4,29.95,West,261,6.0,20.0,68,0.00,,,0.05,Wunderground v.1.15,2013-01-20 21:57:00,
2013-01-20 16:59:00,22.4,13.4,29.95,West,268,6.0,20.0,68,0.00,,,0.05,Wunderground v.1.15,2013-01-20 21:59:00,
2013-01-20 17:02:00,22.5,13.5,29.95,WSW,242,7.0,12.0,68,0.00,,,0.05,Wunderground v.1.15,2013-01-20 22:02:00,
2013-01-20 17:04:00,22.5,13.2,29.95,WSW,254,7.0,20.0,67,0.00,,,0.05,Wunderground v.1.15,2013-01-20 22:04:00,
2013-01-20 17:05:00,22.5,13.5,29.95,West,265,7.0,20.0,68,0.00,,,0.05,Wunderground v.1.15,2013-01-20 22:05:00,
2013-01-20 17:09:00,22.5,13.5,29.95,West,275,7.0,20.0,68,0.00,,,0.05,Wunderground v.1.15,2013-01-20 22:09:00,
2013-01-20 17:10:00,22.5,13.2,29.95,West,267,7.0,7.0,67,0.00,,,0.05,Wunderground v.1.15,2013-01-20 22:10:00,
2013-01-20 17:12:00,22.5,13.2,29.95,WSW,240,7.0,20.0,67,0.00,,,0.05,Wunderground v.1.15,2013-01-20 22:12:00,
2013-01-20 17:15:00,22.5,13.5,29.96,WNW,285,6.0,20.0,68,0.00,,,0.05,Wunderground v.1.15,2013-01-20 22:15:00,
2013-01-20 17:16:00,22.5,13.5,29.96,West,267,6.0,20.0,68,0.00,,,0.05,Wunderground v.1.15,2013-01-20 22:16:00,
2013-01-20 17:18:00,22.5,13.2,29.96,West,271,7.0,20.0,67,0.00,,,0.05,Wunderground v.1.15,2013-01-20 22:18:00,
2013-01-20 17:21:00,22.5,13.5,29.96,West,269,8.0,20.0,68,0.00,,,0.05,Wunderground v.1.15,2013-01-20 22:21:00,
2013-01-20 17:23:00,22.4,13.8,29.96,West,276,9.0,20.0,69,0.00,,,0.05,Wunderground v.1.15,2013-01-20 22:23:00,
2013-01-20 17:26:00,22.4,14.1,29.96,West,270,9.0,20.0,70,0.00,,,0.05,Wunderground v.1.15,2013-01-20 22:26:00,
2013-01-20 17:28:00,22.4,14.1,29.96,WNW,302,8.0,20.0,70,0.00,,,0.05,Wunderground v.1.15,2013-01-20 22:28:00,
2013-01-20 17:30:00,22.4,14.1,29.96,West,267,8.0,20.0,70,0.00,,,0.05,Wunderground v.1.15,2013-01-20 22:30:00,
2013-01-20 17:31:00,22.3,14.0,29.96,West,266,8.0,20.0,70,0.00,,,0.05,Wunderground v.1.15,2013-01-20 22:31:00,
2013-01-20 17:36:00,22.2,14.5,29.96,WSW,242,7.0,20.0,72,0.00,,,0.05,Wunderground v.1.15,2013-01-20 22:36:00,
2013-01-20 17:37:00,22.2,14.5,29.96,West,269,7.0,20.0,72,0.00,,,0.05,Wunderground v.1.15,2013-01-20 22:37:00,
2013-01-20 17:38:00,22.2,14.5,29.96,WSW,242,7.0,20.0,72,0.00,,,0.05,Wunderground v.1.15,2013-01-20 22:38:00,
2013-01-20 17:39:00,22.2,14.5,29.96,WSW,254,7.0,20.0,72,0.00,,,0.05,Wunderground v.1.15,2013-01-20 22:39:00,
2013-01-20 17:44:00,22.0,15.0,29.96,WSW,252,5.0,20.0,74,0.00,,,0.05,Wunderground v.1.15,2013-01-20 22:44:00,
2013-01-20 17:45:00,22.0,15.3,29.96,West,277,5.0,20.0,75,0.00,,,0.05,Wunderground v.1.15,2013-01-20 22:45:00,
2013-01-20 17:46:00,22.0,15.3,29.96,WNW,285,5.0,20.0,75,0.00,,,0.05,Wunderground v.1.15,2013-01-20 22:46:00,
2013-01-20 17:47:00,22.0,15.3,29.96,West,273,5.0,20.0,75,0.00,,,0.05,Wunderground v.1.15,2013-01-20 22:47:00,
2013-01-20 17:51:00,21.9,15.5,29.97,West,276,5.0,20.0,76,0.00,,,0.05,Wunderground v.1.15,2013-01-20 22:51:00,
2013-01-20 17:52:00,21.9,15.8,29.97,West,270,5.0,20.0,77,0.00,,,0.05,Wunderground v.1.15,2013-01-20 22:52:00,
2013-01-20 17:53:00,21.8,15.7,29.97,West,268,5.0,20.0,77,0.00,,,0.05,Wunderground v.1.15,2013-01-20 22:53:00,
2013-01-20 17:56:00,21.7,16.2,29.97,WNW,285,6.0,20.0,79,0.00,,,0.05,Wunderground v.1.15,2013-01-20 22:56:00,
2013-01-20 17:57:00,21.7,16.5,29.97,WSW,257,6.0,20.0,80,0.00,,,0.05,Wunderground v.1.15,2013-01-20 22:57:00,
2013-01-20 17:59:00,21.5,16.6,29.97,West,277,6.0,20.0,81,0.00,,,0.05,Wunderground v.1.15,2013-01-20 22:59:00,
2013-01-20 18:00:00,21.5,16.9,29.97,West,279,6.0,6.0,82,0.00,,,0.05,Wunderground v.1.15,2013-01-20 23:00:00,
2013-01-20 18:02:00,21.4,17.0,29.98,West,276,6.0,20.0,83,0.00,,,0.05,Wunderground v.1.15,2013-01-20 23:02:00,
2013-01-20 18:03:00,21.4,17.0,29.98,West,267,5.0,20.0,83,0.00,,,0.05,Wunderground v.1.15,2013-01-20 23:03:00,
2013-01-20 18:04:00,21.4,17.0,29.98,WNW,301,5.0,20.0,83,0.00,,,0.05,Wunderground v.1.15,2013-01-20 23:04:00,
2013-01-20 18:09:00,21.2,17.1,29.98,NW,321,4.0,20.0,84,0.00,,,0.05,Wunderground v.1.15,2013-01-20 23:09:00,
2013-01-20 18:10:00,21.2,16.8,29.98,West,281,4.0,20.0,83,0.00,,,0.05,Wunderground v.1.15,2013-01-20 23:10:00,
2013-01-20 18:14:00,21.0,16.9,29.98,West,275,6.0,20.0,84,0.00,,,0.05,Wunderground v.1.15,2013-01-20 23:14:00,
2013-01-20 18:15:00,20.9,16.8,29.98,West,264,6.0,20.0,84,0.00,,,0.05,Wunderground v.1.15,2013-01-20 23:15:00,
2013-01-20 18:19:00,20.8,16.5,29.98,West,265,8.0,20.0,83,0.00,,,0.05,Wunderground v.1.15,2013-01-20 23:19:00,
2013-01-20 18:21:00,20.7,16.4,29.98,West,267,8.0,20.0,83,0.00,,,0.05,Wunderground v.1.15,2013-01-20 23:21:00,
2013-01-20 18:22:00,20.7,16.4,29.99,NW,317,8.0,20.0,83,0.00,,,0.05,Wunderground v.1.15,2013-01-20 23:22:00,
2013-01-20 18:24:00,20.7,16.1,29.99,West,271,8.0,20.0,82,0.00,,,0.05,Wunderground v.1.15,2013-01-20 23:24:00,
2013-01-20 18:26:00,20.7,15.8,29.99,West,280,8.0,20.0,81,0.00,,,0.05,Wunderground v.1.15,2013-01-20 23:26:00,
2013-01-20 18:27:00,20.8,15.9,29.99,WNW,287,8.0,20.0,81,0.00,,,0.05,Wunderground v.1.15,2013-01-20 23:27:00,
2013-01-20 18:31:00,20.8,15.9,29.99,West,275,7.0,20.0,81,0.00,,,0.05,Wunderground v.1.15,2013-01-20 23:31:00,
2013-01-20 18:32:00,20.8,15.9,29.99,West,276,6.0,20.0,81,0.00,,,0.05,Wunderground v.1.15,2013-01-20 23:32:00,
2013-01-20 18:33:00,20.8,15.9,29.99,WNW,286,6.0,20.0,81,0.00,,,0.05,Wunderground v.1.15,2013-01-20 23:33:00,
2013-01-20 18:38:00,20.9,15.7,30.00,West,278,6.0,20.0,80,0.00,,,0.05,Wunderground v.1.15,2013-01-20 23:38:00,
2013-01-20 18:39:00,21.0,15.8,30.00,NNW,329,6.0,20.0,80,0.00,,,0.05,Wunderground v.1.15,2013-01-20 23:39:00,
2013-01-20 18:40:00,21.0,15.8,30.00,WSW,257,6.0,6.0,80,0.00,,,0.05,Wunderground v.1.15,2013-01-20 23:40:00,
2013-01-20 18:41:00,21.0,15.8,30.00,West,279,6.0,20.0,80,0.00,,,0.05,Wunderground v.1.15,2013-01-20 23:41:00,
2013-01-20 18:44:00,21.0,15.8,30.00,West,273,6.0,20.0,80,0.00,,,0.05,Wunderground v.1.15,2013-01-20 23:44:00,
2013-01-20 18:45:00,21.0,15.8,30.00,West,260,5.0,20.0,80,0.00,,,0.05,Wunderground v.1.15,2013-01-20 23:45:00,
2013-01-20 18:46:00,21.0,16.1,30.00,West,269,5.0,20.0,81,0.00,,,0.05,Wunderground v.1.15,2013-01-20 23:46:00,
2013-01-20 18:48:00,21.0,16.1,30.00,West,281,5.0,20.0,81,0.00,,,0.05,Wunderground v.1.15,2013-01-20 23:48:00,
2013-01-20 18:52:00,21.0,15.8,30.00,WNW,297,5.0,20.0,80,0.00,,,0.05,Wunderground v.1.15,2013-01-20 23:52:00,
2013-01-20 18:53:00,21.0,15.8,30.00,West,275,6.0,20.0,80,0.00,,,0.05,Wunderground v.1.15,2013-01-20 23:53:00,
2013-01-20 18:54:00,21.0,15.8,30.00,WNW,282,5.0,20.0,80,0.00,,,0.05,Wunderground v.1.15,2013-01-20 23:54:00,
2013-01-20 18:55:00,21.0,16.1,30.00,WNW,294,6.0,20.0,81,0.00,,,0.05,Wunderground v.1.15,2013-01-20 23:55:00,
2013-01-20 19:00:00,21.0,16.1,30.01,West,279,6.0,6.0,81,0.00,,,0.05,Wunderground v.1.15,2013-01-21 00:00:00,
2013-01-20 19:01:00,21.0,16.1,30.00,West,267,7.0,11.0,81,0.00,,,0.05,Wunderground v.1.15,2013-01-21 00:01:00,
2013-01-20 19:04:00,20.9,15.4,30.01,WNW,288,6.0,20.0,79,0.00,,,0.05,Wunderground v.1.15,2013-01-21 00:04:00,
2013-01-20 19:06:00,20.9,15.4,30.01,WNW,298,6.0,20.0,79,0.00,,,0.05,Wunderground v.1.15,2013-01-21 00:06:00,
2013-01-20 19:07:00,20.9,15.4,30.01,West,274,7.0,20.0,79,0.00,,,0.05,Wunderground v.1.15,2013-01-21 00:07:00,
2013-01-20 19:10:00,20.9,15.1,30.01,WNW,288,7.0,7.0,78,0.00,,,0.05,Wunderground v.1.15,2013-01-21 00:10:00,
2013-01-20 19:15:00,20.9,14.8,30.01,West,266,7.0,20.0,77,0.00,,,0.05,Wunderground v.1.15,2013-01-21 00:15:00,
2013-01-20 19:18:00,20.9,14.8,30.02,West,269,8.0,20.0,77,0.00,,,0.05,Wunderground v.1.15,2013-01-21 00:18:00,
2013-01-20 19:21:00,20.8,14.4,30.02,West,271,8.0,20.0,76,0.00,,,0.05,Wunderground v.1.15,2013-01-21 00:21:00,
2013-01-20 19:22:00,20.8,14.4,30.01,West,259,8.0,20.0,76,0.00,,,0.05,Wunderground v.1.15,2013-01-21 00:22:00,
2013-01-20 19:25:00,20.7,14.6,30.02,West,269,8.0,20.0,77,0.00,,,0.05,Wunderground v.1.15,2013-01-21 00:25:00,
2013-01-20 19:26:00,20.7,14.6,30.01,WNW,286,8.0,20.0,77,0.00,,,0.05,Wunderground v.1.15,2013-01-21 00:26:00,
2013-01-20 19:27:00,20.6,14.8,30.02,WSW,239,8.0,20.0,78,0.00,,,0.05,Wunderground v.1.15,2013-01-21 00:27:00,
2013-01-20 19:28:00,20.6,14.8,30.02,West,271,8.0,20.0,78,0.00,,,0.05,Wunderground v.1.15,2013-01-21 00:28:00,
2013-01-20 19:31:00,20.4,14.9,30.02,WSW,238,7.0,20.0,79,0.00,,,0.05,Wunderground v.1.15,2013-01-21 00:31:00,
2013-01-20 19:34:00,20.4,14.6,30.02,WSW,249,7.0,20.0,78,0.00,,,0.05,Wunderground v.1.15,2013-01-21 00:34:00,
2013-01-20 19:35:00,20.3,14.5,30.02,WNW,287,8.0,20.0,78,0.00,,,0.05,Wunderground v.1.15,2013-01-21 00:35:00,
2013-01-20 19:37:00,20.3,14.5,30.02,WNW,283,7.0,20.0,78,0.00,,,0.05,Wunderground v.1.15,2013-01-21 00:37:00,
2013-01-20 19:39:00,20.3,14.5,30.02,West,275,7.0,20.0,78,0.00,,,0.05,Wunderground v.1.15,2013-01-21 00:39:00,
2013-01-20 19:40:00,20.3,14.2,30.02,West,276,7.0,7.0,77,0.00,,,0.05,Wunderground v.1.15,2013-01-21 00:40:00,
2013-01-20 19:44:00,20.3,14.2,30.02,West,269,7.0,20.0,77,0.00,,,0.05,Wunderground v.1.15,2013-01-21 00:44:00,
2013-01-20 19:45:00,20.3,14.2,30.02,WNW,283,6.0,20.0,77,0.00,,,0.05,Wunderground v.1.15,2013-01-21 00:45:00,
2013-01-20 19:47:00,20.3,13.9,30.02,WNW,288,7.0,20.0,76,0.00,,,0.05,Wunderground v.1.15,2013-01-21 00:47:00,
2013-01-20 19:51:00,20.2,13.5,30.02,West,263,8.0,20.0,75,0.00,,,0.05,Wunderground v.1.15,2013-01-21 00:51:00,
2013-01-20 19:53:00,20.2,13.5,30.02,West,277,7.0,20.0,75,0.00,,,0.05,Wunderground v.1.15,2013-01-21 00:53:00,
2013-01-20 19:58:00,20.1,13.1,30.02,West,273,8.0,20.0,74,0.00,,,0.05,Wunderground v.1.15,2013-01-21 00:58:00,
2013-01-20 20:00:00,20.2,13.2,30.02,West,269,7.0,20.0,74,0.00,,,0.05,Wunderground v.1.15,2013-01-21 01:00:00,
2013-01-20 20:01:00,20.2,13.2,30.02,West,267,7.0,20.0,74,0.00,,,0.05,Wunderground v.1.15,2013-01-21 01:01:00,
2013-01-20 20:04:00,20.2,13.2,30.02,WSW,250,7.0,20.0,74,0.00,,,0.05,Wunderground v.1.15,2013-01-21 01:04:00,
2013-01-20 20:05:00,20.2,12.9,30.02,WSW,252,7.0,20.0,73,0.00,,,0.05,Wunderground v.1.15,2013-01-21 01:05:00,
2013-01-20 20:06:00,20.2,12.9,30.02,WSW,254,7.0,20.0,73,0.00,,,0.05,Wunderground v.1.15,2013-01-21 01:06:00,
2013-01-20 20:10:00,20.2,12.9,30.02,WSW,254,6.0,6.0,73,0.00,,,0.05,Wunderground v.1.15,2013-01-21 01:10:00,
2013-01-20 20:11:00,20.3,13.0,30.02,WSW,253,6.0,20.0,73,0.00,,,0.05,Wunderground v.1.15,2013-01-21 01:11:00,
2013-01-20 20:15:00,20.3,13.3,30.02,NW,314,6.0,20.0,74,0.00,,,0.05,Wunderground v.1.15,2013-01-21 01:15:00,
2013-01-20 20:16:00,20.3,13.0,30.02,West,269,6.0,20.0,73,0.00,,,0.05,Wunderground v.1.15,2013-01-21 01:16:00,
2013-01-20 20:20:00,20.3,13.3,30.02,West,276,7.0,7.0,74,0.00,,,0.05,Wunderground v.1.15,2013-01-21 01:20:00,
2013-01-20 20:21:00,20.2,13.2,30.02,West,275,7.0,20.0,74,0.00,,,0.05,Wunderground v.1.15,2013-01-21 01:21:00,
2013-01-20 20:23:00,20.2,13.2,30.02,West,269,7.0,20.0,74,0.00,,,0.05,Wunderground v.1.15,2013-01-21 01:23:00,
2013-01-20 20:26:00,20.2,13.2,30.02,SW,228,6.0,20.0,74,0.00,,,0.05,Wunderground v.1.15,2013-01-21 01:26:00,
2013-01-20 20:27:00,20.2,12.9,30.02,West,274,6.0,20.0,73,0.00,,,0.05,Wunderground v.1.15,2013-01-21 01:27:00,
2013-01-20 20:28:00,20.2,12.6,30.02,West,280,6.0,20.0,72,0.00,,,0.05,Wunderground v.1.15,2013-01-21 01:28:00,
2013-01-20 20:31:00,20.3,13.0,30.03,WSW,252,6.0,20.0,73,0.00,,,0.05,Wunderground v.1.15,2013-01-21 01:31:00,
2013-01-20 20:33:00,20.3,12.7,30.02,WNW,288,5.0,20.0,72,0.00,,,0.05,Wunderground v.1.15,2013-01-21 01:33:00,
2013-01-20 20:37:00,20.3,13.0,30.02,WSW,237,4.0,20.0,73,0.00,,,0.05,Wunderground v.1.15,2013-01-21 01:37:00,
2013-01-20 20:39:00,20.3,13.0,30.02,WSW,252,4.0,20.0,73,0.00,,,0.05,Wunderground v.1.15,2013-01-21 01:39:00,
2013-01-20 20:41:00,20.3,13.0,30.02,NW,307,4.0,20.0,73,0.00,,,0.05,Wunderground v.1.15,2013-01-21 01:41:00,
2013-01-20 20:45:00,20.3,13.6,30.02,NW,304,5.0,20.0,75,0.00,,,0.05,Wunderground v.1.15,2013-01-21 01:45:00,
2013-01-20 20:46:00,20.3,13.6,30.03,NW,325,5.0,20.0,75,0.00,,,0.05,Wunderground v.1.15,2013-01-21 01:46:00,
2013-01-20 20:47:00,20.3,14.2,30.03,WNW,295,5.0,20.0,77,0.00,,,0.05,Wunderground v.1.15,2013-01-21 01:47:00,
2013-01-20 20:50:00,20.2,14.4,30.03,NW,311,5.0,20.0,78,0.00,,,0.05,Wunderground v.1.15,2013-01-21 01:50:00,
2013-01-20 20:52:00,20.1,14.3,30.03,West,280,6.0,20.0,78,0.00,,,0.05,Wunderground v.1.15,2013-01-21 01:52:00,
2013-01-20 20:58:00,19.8,13.8,30.03,WNW,284,6.0,20.0,77,0.00,,,0.05,Wunderground v.1.15,2013-01-21 01:58:00,
2013-01-20 20:59:00,19.8,13.8,30.03,WNW,295,6.0,20.0,77,0.00,,,0.05,Wunderground v.1.15,2013-01-21 01:59:00,
2013-01-20 21:00:00,19.8,13.5,30.03,West,267,6.0,6.0,76,0.00,,,0.05,Wunderground v.1.15,2013-01-21 02:00:00,
2013-01-20 21:01:00,19.7,13.7,30.03,WNW,282,6.0,20.0,77,0.00,,,0.05,Wunderground v.1.15,2013-01-21 02:01:00,
2013-01-20 21:04:00,19.7,13.4,30.03,West,271,5.0,20.0,76,0.00,,,0.05,Wunderground v.1.15,2013-01-21 02:04:00,
2013-01-20 21:06:00,19.7,13.4,30.03,WNW,294,5.0,20.0,76,0.00,,,0.05,Wunderground v.1.15,2013-01-21 02:06:00,
2013-01-20 21:10:00,19.7,13.1,30.03,West,279,4.0,4.0,75,0.00,,,0.05,Wunderground v.1.15,2013-01-21 02:10:00,
2013-01-20 21:12:00,19.7,12.8,30.03,WNW,286,5.0,20.0,74,0.00,,,0.05,Wunderground v.1.15,2013-01-21 02:12:00,
2013-01-20 21:13:00,19.7,12.8,30.03,WNW,291,5.0,20.0,74,0.00,,,0.05,Wunderground v.1.15,2013-01-21 02:13:00,
2013-01-20 21:14:00,19.7,12.8,30.03,WNW,294,5.0,20.0,74,0.00,,,0.05,Wunderground v.1.15,2013-01-21 02:14:00,
2013-01-20 21:19:00,19.7,12.4,30.03,NW,309,5.0,20.0,73,0.00,,,0.05,Wunderground v.1.15,2013-01-21 02:19:00,
2013-01-20 21:20:00,19.7,12.1,30.04,WNW,299,5.0,20.0,72,0.00,,,0.05,Wunderground v.1.15,2013-01-21 02:20:00,
2013-01-20 21:24:00,19.7,12.4,30.03,West,273,4.0,20.0,73,0.00,,,0.05,Wunderground v.1.15,2013-01-21 02:24:00,
2013-01-20 21:25:00,19.7,12.4,30.04,West,263,4.0,20.0,73,0.00,,,0.05,Wunderground v.1.15,2013-01-21 02:25:00,
2013-01-20 21:26:00,19.7,12.4,30.04,WSW,241,4.0,20.0,73,0.00,,,0.05,Wunderground v.1.15,2013-01-21 02:26:00,
2013-01-20 21:28:00,19.8,12.5,30.04,West,279,4.0,20.0,73,0.00,,,0.05,Wunderground v.1.15,2013-01-21 02:28:00,
2013-01-20 21:30:00,19.7,12.4,30.04,WNW,288,3.0,20.0,73,0.00,,,0.05,Wunderground v.1.15,2013-01-21 02:30:00,
2013-01-20 21:33:00,19.8,12.5,30.04,WNW,292,3.0,20.0,73,0.00,,,0.05,Wunderground v.1.15,2013-01-21 02:33:00,
2013-01-20 21:34:00,19.8,12.2,30.04,West,273,3.0,20.0,72,0.00,,,0.05,Wunderground v.1.15,2013-01-21 02:34:00,
2013-01-20 21:36:00,19.8,12.2,30.04,West,276,3.0,20.0,72,0.00,,,0.05,Wunderground v.1.15,2013-01-21 02:36:00,
2013-01-20 21:39:00,19.8,12.5,30.04,West,269,3.0,20.0,73,0.00,,,0.05,Wunderground v.1.15,2013-01-21 02:39:00,
2013-01-20 21:40:00,19.8,12.2,30.05,West,273,3.0,3.0,72,0.00,,,0.05,Wunderground v.1.15,2013-01-21 02:40:00,
2013-01-20 21:43:00,19.8,12.2,30.04,WSW,254,4.0,20.0,72,0.00,,,0.05,Wunderground v.1.15,2013-01-21 02:43:00,
2013-01-20 21:45:00,19.8,11.6,30.04,NW,315,4.0,20.0,70,0.00,,,0.05,Wunderground v.1.15,2013-01-21 02:45:00,
2013-01-20 21:49:00,19.8,11.3,30.04,WNW,288,5.0,20.0,69,0.00,,,0.05,Wunderground v.1.15,2013-01-21 02:49:00,
2013-01-20 21:51:00,19.8,11.3,30.04,West,280,5.0,20.0,69,0.00,,,0.05,Wunderground v.1.15,2013-01-21 02:51:00,
2013-01-20 21:53:00,19.9,11.4,30.04,West,264,5.0,20.0,69,0.00,,,0.05,Wunderground v.1.15,2013-01-21 02:53:00,
2013-01-20 21:57:00,19.8,11.3,30.04,West,259,4.0,20.0,69,0.00,,,0.05,Wunderground v.1.15,2013-01-21 02:57:00,
2013-01-20 21:59:00,19.8,11.6,30.04,WNW,300,3.0,20.0,70,0.00,,,0.05,Wunderground v.1.15,2013-01-21 02:59:00,
2013-01-20 22:00:00,19.9,11.7,30.04,WNW,299,3.0,3.0,70,0.00,,,0.05,Wunderground v.1.15,2013-01-21 03:00:00,
2013-01-20 22:05:00,19.8,11.6,30.04,NW,310,3.0,20.0,70,0.00,,,0.05,Wunderground v.1.15,2013-01-21 03:05:00,
2013-01-20 22:07:00,19.8,11.6,30.05,WSW,249,3.0,20.0,70,0.00,,,0.05,Wunderground v.1.15,2013-01-21 03:07:00,
2013-01-20 22:09:00,19.8,11.3,30.04,West,280,3.0,20.0,69,0.00,,,0.05,Wunderground v.1.15,2013-01-21 03:09:00,
2013-01-20 22:10:00,19.8,11.3,30.05,WNW,302,3.0,20.0,69,0.00,,,0.05,Wunderground v.1.15,2013-01-21 03:10:00,
2013-01-20 22:13:00,19.8,11.9,30.04,WSW,237,4.0,20.0,71,0.00,,,0.05,Wunderground v.1.15,2013-01-21 03:13:00,
2013-01-20 22:15:00,19.8,11.3,30.05,WNW,296,5.0,20.0,69,0.00,,,0.05,Wunderground v.1.15,2013-01-21 03:15:00,
2013-01-20 22:16:00,19.8,10.9,30.05,WNW,294,5.0,20.0,68,0.00,,,0.05,Wunderground v.1.15,2013-01-21 03:16:00,
2013-01-20 22:20:00,19.8,10.3,30.05,WNW,284,6.0,6.0,66,0.00,,,0.05,Wunderground v.1.15,2013-01-21 03:20:00,
2013-01-20 22:21:00,19.8,10.3,30.05,West,281,7.0,7.0,66,0.00,,,0.05,Wunderground v.1.15,2013-01-21 03:21:00,
2013-01-20 22:25:00,19.8,9.9,30.05,NW,309,6.0,20.0,65,0.00,,,0.05,Wunderground v.1.15,2013-01-21 03:25:00,
2013-01-20 22:26:00,19.8,10.3,30.05,WNW,286,6.0,20.0,66,0.00,,,0.05,Wunderground v.1.15,2013-01-21 03:26:00,
2013-01-20 22:28:00,19.8,10.3,30.05,West,269,6.0,20.0,66,0.00,,,0.05,Wunderground v.1.15,2013-01-21 03:28:00,
2013-01-20 22:30:00,19.8,10.3,30.05,SW,229,5.0,20.0,66,0.00,,,0.05,Wunderground v.1.15,2013-01-21 03:30:00,
2013-01-20 22:32:00,19.7,9.8,30.04,West,279,5.0,20.0,65,0.00,,,0.05,Wunderground v.1.15,2013-01-21 03:32:00,
2013-01-20 22:35:00,19.7,9.8,30.05,WNW,292,5.0,20.0,65,0.00,,,0.05,Wunderground v.1.15,2013-01-21 03:35:00,
2013-01-20 22:36:00,19.7,10.2,30.05,WNW,294,5.0,20.0,66,0.00,,,0.05,Wunderground v.1.15,2013-01-21 03:36:00,
2013-01-20 22:37:00,19.7,9.5,30.05,West,273,5.0,20.0,64,0.00,,,0.05,Wunderground v.1.15,2013-01-21 03:37:00,
2013-01-20 22:39:00,19.7,9.8,30.05,NNW,336,6.0,20.0,65,0.00,,,0.05,Wunderground v.1.15,2013-01-21 03:39:00,
2013-01-20 22:42:00,19.6,9.7,30.05,West,263,5.0,20.0,65,0.00,,,0.05,Wunderground v.1.15,2013-01-21 03:42:00,
2013-01-20 22:44:00,19.6,9.4,30.05,West,279,4.0,20.0,64,0.00,,,0.05,Wunderground v.1.15,2013-01-21 03:44:00,
2013-01-20 22:45:00,19.6,9.4,30.05,West,276,4.0,20.0,64,0.00,,,0.05,Wunderground v.1.15,2013-01-21 03:45:00,
2013-01-20 22:46:00,19.5,9.3,30.05,West,273,4.0,20.0,64,0.00,,,0.05,Wunderground v.1.15,2013-01-21 03:46:00,
2013-01-20 22:47:00,19.5,9.3,30.05,WNW,288,4.0,20.0,64,0.00,,,0.05,Wunderground v.1.15,2013-01-21 03:47:00,
2013-01-20 22:51:00,19.4,9.2,30.05,West,271,5.0,20.0,64,0.00,,,0.05,Wunderground v.1.15,2013-01-21 03:51:00,
2013-01-20 22:53:00,19.4,9.2,30.05,West,270,5.0,20.0,64,0.00,,,0.05,Wunderground v.1.15,2013-01-21 03:53:00,
2013-01-20 22:56:00,19.4,9.2,30.05,West,265,6.0,20.0,64,0.00,,,0.05,Wunderground v.1.15,2013-01-21 03:56:00,
2013-01-20 22:57:00,19.4,9.2,30.05,WNW,295,6.0,20.0,64,0.00,,,0.05,Wunderground v.1.15,2013-01-21 03:57:00,
2013-01-20 22:58:00,19.4,11.2,30.05,WNW,291,7.0,20.0,70,0.00,,,0.05,Wunderground v.1.15,2013-01-21 03:58:00,
2013-01-20 23:03:00,19.3,8.8,30.05,NW,309,7.0,20.0,63,0.00,,,0.05,Wunderground v.1.15,2013-01-21 04:03:00,
2013-01-20 23:04:00,19.3,9.1,30.05,West,274,6.0,20.0,64,0.00,,,0.05,Wunderground v.1.15,2013-01-21 04:04:00,
2013-01-20 23:05:00,19.3,8.8,30.05,WNW,296,6.0,20.0,63,0.00,,,0.05,Wunderground v.1.15,2013-01-21 04:05:00,
2013-01-20 23:09:00,19.3,9.4,30.05,West,281,6.0,20.0,65,0.00,,,0.05,Wunderground v.1.15,2013-01-21 04:09:00,
2013-01-20 23:10:00,19.3,9.4,30.05,West,279,5.0,20.0,65,0.00,,,0.05,Wunderground v.1.15,2013-01-21 04:10:00,
2013-01-20 23:11:00,19.3,9.1,30.05,West,268,5.0,20.0,64,0.00,,,0.05,Wunderground v.1.15,2013-01-21 04:11:00,
2013-01-20 23:12:00,19.3,9.1,30.05,West,265,5.0,20.0,64,0.00,,,0.05,Wunderground v.1.15,2013-01-21 04:12:00,
2013-01-20 23:18:00,19.2,9.4,30.05,NW,304,3.0,20.0,65,0.00,,,0.05,Wunderground v.1.15,2013-01-21 04:18:00,
2013-01-20 23:20:00,19.1,8.9,30.05,NW,304,3.0,20.0,64,0.00,,,0.05,Wunderground v.1.15,2013-01-21 04:20:00,
2013-01-20 23:23:00,19.2,8.7,30.05,WNW,286,4.0,20.0,63,0.00,,,0.05,Wunderground v.1.15,2013-01-21 04:23:00,
2013-01-20 23:24:00,19.2,8.7,30.05,WNW,294,4.0,20.0,63,0.00,,,0.05,Wunderground v.1.15,2013-01-21 04:24:00,
2013-01-20 23:26:00,19.2,8.7,30.05,West,268,4.0,20.0,63,0.00,,,0.05,Wunderground v.1.15,2013-01-21 04:26:00,
2013-01-20 23:28:00,19.2,8.7,30.05,WNW,290,5.0,20.0,63,0.00,,,0.05,Wunderground v.1.15,2013-01-21 04:28:00,
2013-01-20 23:32:00,19.1,8.2,30.05,WNW,293,4.0,20.0,62,0.00,,,0.05,Wunderground v.1.15,2013-01-21 04:32:00,
2013-01-20 23:33:00,19.1,8.6,30.05,West,281,3.0,20.0,63,0.00,,,0.05,Wunderground v.1.15,2013-01-21 04:33:00,
2013-01-20 23:35:00,19.1,8.6,30.05,NW,323,3.0,20.0,63,0.00,,,0.05,Wunderground v.1.15,2013-01-21 04:35:00,
2013-01-20 23:40:00,18.9,8.4,30.05,NW,313,4.0,20.0,63,0.00,,,0.05,Wunderground v.1.15,2013-01-21 04:40:00,
2013-01-20 23:41:00,18.9,8.4,30.05,WSW,254,4.0,20.0,63,0.00,,,0.05,Wunderground v.1.15,2013-01-21 04:41:00,
2013-01-20 23:43:00,18.9,7.7,30.05,West,268,4.0,20.0,61,0.00,,,0.05,Wunderground v.1.15,2013-01-21 04:43:00,
2013-01-20 23:45:00,18.9,7.7,30.05,West,269,5.0,20.0,61,0.00,,,0.05,Wunderground v.1.15,2013-01-21 04:45:00,
2013-01-20 23:47:00,18.9,8.4,30.05,WNW,296,6.0,20.0,63,0.00,,,0.05,Wunderground v.1.15,2013-01-21 04:47:00,
2013-01-20 23:49:00,18.9,8.0,30.05,WNW,290,6.0,20.0,62,0.00,,,0.05,Wunderground v.1.15,2013-01-21 04:49:00,
2013-01-20 23:51:00,18.9,8.0,30.05,WNW,283,7.0,20.0,62,0.00,,,0.05,Wunderground v.1.15,2013-01-21 04:51:00,
2013-01-20 23:52:00,19.0,8.1,30.05,West,275,7.0,20.0,62,0.00,,,0.05,Wunderground v.1.15,2013-01-21 04:52:00,
2013-01-20 23:56:00,19.0,8.1,30.05,NW,306,6.0,20.0,62,0.00,,,0.05,Wunderground v.1.15,2013-01-21 04:56:00,
2013-01-20 23:57:00,19.0,8.1,30.05,WNW,283,6.0,20.0,62,0.00,,,0.05,Wunderground v.1.15,2013-01-21 04:57:00,
2013-01-20 23:58:00,19.0,8.1,30.05,WNW,292,6.0,20.0,62,0.00,,,0.05,Wunderground v.1.15,2013-01-21 04:58:00,
2013-01-20 23:59:00,19.0,8.1,30.05,WSW,254,6.0,20.0,62,0.00,,,0.05,Wunderground v.1.15,2013-01-21 04:59:00,